GFSMA_sfc_dewp_039.txt.gz
Dewpoint
60 57 58 59 58 56 50 47 44 40 35 31 28 30 32 34 31 41 32 50 49 50 51 53 53 53 52 52 53 52 52 53 53 54 54 55 55 56 56 57 58 59 60
58 60 50 48 46 45 42 40 36 34 29 26 24 27 31 28 36 30 33 40 45 47 49 49 49 48 49 49 49 49 49 50 51 52 53 53 53 53 53 54 56 57 58
59 51 47 44 42 39 33 31 32 30 27 24 22 27 29 26 37 27 32 33 32 42 44 44 44 44 44 46 47 47 47 48 49 49 50 50 51 51 52 53 54 54 55
49 46 42 36 33 32 32 29 30 30 26 25 22 26 26 30 25 28 30 30 29 27 33 37 37 38 40 41 44 45 45 46 47 48 47 48 48 49 50 50 51 53 55
44 40 36 31 28 28 29 27 28 30 26 24 23 24 28 32 25 25 27 29 28 29 27 28 32 32 35 37 41 43 43 43 45 45 45 46 47 47 48 49 50 51 52
36 33 31 28 27 27 25 27 24 27 25 26 21 20 31 35 28 26 25 26 25 26 26 23 21 21 31 34 38 40 41 42 43 44 44 45 46 47 47 48 50 50 51
30 29 27 26 26 24 22 20 25 24 25 27 23 24 27 27 32 31 21 26 25 24 22 19 16 17 20 31 33 35 39 40 42 42 43 44 45 46 47 48 49 49 50
27 25 26 25 24 24 22 22 23 23 23 28 21 25 20 19 25 22 27 25 23 22 18 15 15 17 21 21 26 34 35 38 40 42 43 43 45 46 47 47 48 48 49
25 25 25 24 25 25 23 23 24 26 22 26 24 20 16 14 21 21 21 24 19 18 17 17 17 17 19 20 26 28 32 35 39 42 43 44 45 46 46 47 48 48 48
23 23 23 23 23 24 22 22 21 22 24 20 23 20 25 22 15 12 20 19 19 14 17 17 16 18 20 21 26 30 32 34 38 41 43 44 45 45 46 46 46 47 46
22 22 22 23 22 22 21 21 20 21 20 21 21 21 21 20 23 21 12 14 15 16 17 17 17 18 19 21 23 26 31 34 38 40 42 43 44 45 45 45 45 45 45
20 20 20 21 21 21 21 20 20 21 19 21 21 20 19 17 16 16 15 16 17 14 17 18 18 17 18 20 23 29 31 34 37 39 41 42 42 42 43 44 44 44 44
17 18 18 18 19 21 21 21 23 24 23 21 19 18 20 20 20 19 19 17 16 17 16 16 17 17 17 20 21 28 30 33 34 36 39 41 40 39 39 41 42 42 42
16 17 17 17 18 18 18 20 22 22 23 21 18 18 19 20 21 21 20 19 18 15 15 15 16 18 20 20 25 29 24 30 32 34 36 37 36 35 36 37 38 38 40
15 16 18 17 18 18 18 20 20 18 18 19 18 19 19 20 22 22 22 22 20 17 17 15 16 19 21 22 24 22 22 29 32 33 34 34 34 34 35 37 37 37 37
15 16 17 17 17 17 17 17 17 18 17 19 19 19 20 21 21 22 23 23 22 21 20 18 20 21 22 21 25 23 22 29 31 32 33 32 32 32 33 34 35 35 36
15 16 16 16 16 16 15 14 14 16 17 19 20 20 21 21 21 21 22 23 22 22 21 21 22 22 21 21 21 23 25 24 26 30 31 31 31 31 32 32 33 34 35
15 15 15 15 14 15 14 13 14 17 19 20 20 21 21 20 21 21 21 21 22 22 23 22 22 22 20 21 23 25 23 21 22 25 29 29 30 31 31 31 32 33 33
15 15 15 14 14 15 14 13 16 19 21 21 21 21 21 20 19 20 21 22 23 22 24 24 22 23 24 26 24 21 18 18 17 24 27 28 30 31 31 32 32 32 31
15 15 14 14 14 13 13 15 20 22 23 22 22 22 21 21 21 22 23 23 24 23 23 24 24 27 25 22 23 20 19 20 20 19 25 27 29 29 30 30 30 29 29
15 15 14 13 13 14 10 21 23 24 23 23 23 21 21 24 27 27 24 23 23 24 26 27 27 23 23 20 18 19 19 21 24 22 22 21 22 23 24 27 27 28 28
14 14 13 13 12 11 22 25 26 23 23 22 21 21 21 25 25 28 28 28 27 25 29 28 25 22 18 18 20 21 25 23 21 22 21 21 23 22 22 23 27 28 29
13 13 12 12 12 13 23 26 26 23 22 22 21 21 20 20 25 23 27 29 29 34 29 25 20 18 19 20 27 27 25 24 22 22 22 21 21 20 21 19 26 28 29
12 12 12 12 13 13 25 25 26 23 22 22 22 21 21 22 23 25 24 31 30 24 20 19 21 22 27 28 23 23 24 25 24 21 20 21 20 20 20 21 27 28 29
12 12 12 13 14 17 24 25 25 22 21 21 21 22 22 21 25 27 28 28 21 19 21 25 28 28 26 26 25 24 25 22 20 18 20 20 20 22 22 22 22 27 27
12 12 12 15 18 16 23 25 24 21 21 20 22 20 24 24 26 29 24 21 21 17 23 27 17 17 20 20 25 21 23 22 21 19 19 21 22 23 21 21 24 24 23

GFSMA_sfc_dewp_042.txt.gz
Dewpoint
59 58 57 58 59 58 53 50 45 41 42 38 33 31 32 32 30 35 34 50 49 50 52 52 51 51 51 51 51 51 51 52 53 53 55 55 55 56 56 57 58 58 59
60 59 56 52 48 46 44 45 43 40 36 30 26 26 28 27 30 32 33 40 48 48 49 48 47 47 47 47 49 49 49 49 50 51 51 52 53 53 54 55 55 56 56
61 56 51 49 46 43 39 38 36 33 30 27 26 24 26 23 32 30 33 32 35 43 42 42 41 40 42 43 45 46 46 47 48 48 50 50 50 50 51 52 52 53 54
57 50 45 41 39 39 36 32 31 32 29 27 25 25 25 26 28 29 32 29 30 27 32 36 37 37 38 40 42 44 44 44 44 46 47 48 48 49 50 50 50 51 52
52 46 41 36 34 33 32 28 30 28 27 25 23 22 28 32 28 24 28 27 29 30 27 25 28 27 31 37 40 41 42 42 43 44 45 46 47 48 48 49 49 50 52
45 38 36 32 31 30 29 28 27 26 24 24 19 19 29 33 28 28 27 22 26 27 26 24 21 20 26 31 35 37 41 42 42 43 44 45 46 47 48 48 49 50 50
37 33 33 30 30 27 24 23 25 25 25 25 23 23 26 26 32 31 27 24 25 23 21 18 16 17 17 28 30 34 39 40 41 42 43 44 45 46 48 48 49 49 50
32 30 30 29 27 25 24 23 24 25 24 26 21 25 22 20 25 28 21 24 20 21 18 17 17 17 18 20 25 32 34 37 40 42 43 44 45 46 47 48 48 49 49
28 30 29 27 27 26 25 25 26 26 24 25 23 21 19 18 18 20 21 18 20 17 17 19 18 17 18 19 24 26 30 35 39 42 44 45 45 46 46 47 47 48 48
29 26 26 25 25 24 24 23 21 22 24 22 24 18 23 18 14 13 17 17 17 15 18 18 17 17 19 20 25 28 30 33 38 41 43 44 44 45 46 46 47 47 47
26 25 24 25 23 23 23 23 22 21 19 22 21 21 20 18 18 18 15 14 15 17 17 17 17 18 18 19 21 24 29 34 38 40 42 43 43 44 45 45 45 45 45
25 23 22 23 22 23 23 22 22 22 21 23 21 20 18 17 15 17 15 17 17 15 16 18 18 17 18 18 21 27 30 34 37 39 41 42 42 42 43 44 44 43 43
22 22 21 20 21 23 23 23 25 27 26 23 21 17 18 18 18 18 18 17 15 16 16 16 16 17 15 18 20 27 30 33 34 36 40 41 40 39 39 41 42 42 42
23 21 19 19 19 20 20 22 24 24 26 23 20 19 19 18 19 20 19 19 17 15 15 14 15 16 18 18 23 29 23 29 31 34 37 37 36 36 36 37 39 39 40
18 19 19 18 19 19 18 21 20 18 18 19 18 20 20 20 21 21 21 21 19 16 15 14 14 16 18 20 23 20 20 28 31 32 34 34 34 34 34 35 36 36 37
17 18 18 18 18 17 16 16 16 17 16 18 18 20 20 20 20 21 22 21 20 19 17 16 15 18 19 19 22 20 20 28 30 32 32 32 32 32 33 34 35 35 36
16 16 15 16 15 15 14 13 13 15 16 19 20 20 21 21 21 19 20 19 19 19 18 19 19 20 20 21 19 22 23 23 23 27 29 30 31 32 32 33 34 35 36
15 15 14 14 13 13 12 11 11 15 18 19 20 21 20 18 19 18 18 19 19 20 21 21 22 22 21 21 22 23 20 16 18 24 28 30 31 32 32 32 33 34 34
15 15 15 13 12 13 12 10 13 16 19 20 21 21 21 19 17 19 19 21 21 20 24 25 24 23 24 25 24 22 19 19 17 25 28 29 30 31 32 32 32 33 32
15 15 14 13 13 11 12 13 18 20 21 21 22 22 21 19 19 20 20 21 20 22 21 22 24 27 29 25 25 21 18 20 20 19 25 27 29 29 30 31 30 30 31
15 15 14 13 13 14 8 19 21 22 22 21 21 20 20 22 26 27 23 22 22 23 26 28 28 29 26 22 17 19 20 22 24 24 24 23 23 24 25 28 28 29 29
15 15 13 13 12 10 19 25 26 22 21 20 19 18 18 22 22 27 27 28 27 27 31 32 28 24 18 16 19 21 24 27 21 23 22 22 24 23 24 24 27 29 30
15 14 13 12 11 12 21 26 27 22 21 19 19 19 18 18 23 20 24 27 28 30 30 26 21 17 17 19 26 29 27 25 23 23 24 23 22 21 23 21 28 29 30
13 12 12 12 13 12 23 25 26 22 20 20 19 20 20 20 21 22 22 29 30 25 20 18 19 20 24 28 27 23 25 25 25 23 22 23 23 22 23 24 28 29 30
13 12 13 12 13 14 20 25 25 20 19 19 19 19 21 20 24 27 27 31 20 19 20 23 26 29 29 26 25 24 26 24 22 21 23 22 23 24 25 25 25 27 28
13 13 11 13 15 14 18 24 24 20 19 18 20 19 23 22 26 28 26 21 21 16 21 27 23 19 20 20 25 22 25 25 23 22 21 24 25 23 22 24 27 27 26

GFSMA_sfc_dewp_048.txt.gz
Dewpoint
55 56 57 58 58 56 55 53 49 47 45 40 38 33 30 32 29 40 48 56 55 54 53 51 50 48 47 47 47 47 48 48 49 50 50 51 52 52 52 52 53 54 55
58 58 57 56 54 52 51 51 47 43 40 33 31 29 28 29 28 30 44 50 51 49 48 46 45 44 44 45 45 45 46 47 48 48 47 49 50 50 50 50 51 52 52
59 59 56 54 52 49 47 43 40 36 34 33 31 28 26 25 26 28 35 43 45 46 41 40 39 39 40 42 45 45 45 46 46 46 47 48 48 49 49 50 50 51 51
60 57 55 53 48 47 43 39 36 35 32 31 29 29 27 29 29 28 31 34 38 36 38 35 32 33 33 37 41 44 44 45 45 46 46 46 48 48 49 49 50 50 51
58 54 51 46 45 43 38 35 32 31 30 30 27 24 29 31 29 25 28 28 28 30 31 30 29 32 30 34 36 40 41 43 44 45 45 46 46 48 48 49 49 50 50
56 52 46 43 41 38 35 35 31 29 29 28 24 25 30 32 30 30 28 27 29 26 27 25 25 25 31 32 35 37 38 42 42 43 45 45 46 47 48 48 49 49 50
51 45 44 39 38 36 34 30 30 30 29 28 28 28 30 29 32 30 31 29 27 26 22 22 22 22 23 30 31 33 37 37 40 43 43 44 45 46 47 48 48 48 49
48 43 40 36 33 30 28 28 30 29 29 27 24 28 27 27 28 29 32 25 22 22 21 19 19 19 21 23 27 31 32 36 39 42 43 44 45 46 47 47 47 48 48
45 47 46 40 32 34 33 31 31 30 30 27 24 26 24 24 22 25 23 26 20 23 20 21 21 20 20 21 27 27 29 33 37 41 43 44 45 45 46 46 46 47 47
44 43 44 38 33 33 30 28 28 26 29 26 27 24 25 22 20 18 23 21 20 18 20 22 20 20 20 22 28 29 29 32 35 40 43 44 44 45 45 45 45 45 45
43 40 35 35 31 31 27 26 25 23 24 27 25 24 22 23 21 20 20 21 21 21 22 22 20 21 20 21 24 26 28 31 35 39 42 43 44 44 45 45 45 45 45
36 33 30 30 29 29 28 27 26 25 25 25 24 23 23 21 21 20 20 19 19 20 20 21 20 21 21 23 25 27 28 30 34 38 41 42 42 42 43 43 43 43 43
33 33 33 30 29 29 28 29 30 29 27 27 22 22 22 22 22 21 21 21 20 20 20 20 20 20 18 20 21 30 30 31 33 36 39 41 40 39 39 40 41 41 42
33 32 31 28 25 26 27 29 30 29 28 28 22 22 23 22 23 23 22 22 20 20 20 19 20 19 19 20 25 29 23 30 32 34 37 37 36 36 36 37 38 38 39
28 29 26 22 23 22 24 26 27 21 20 20 20 21 22 24 24 24 24 23 22 19 18 19 18 19 21 22 24 23 22 28 32 33 34 34 34 34 35 35 35 36 37
24 24 25 21 21 20 20 21 19 17 16 19 21 19 21 23 22 23 24 24 23 22 18 19 19 19 21 21 24 23 23 29 30 32 33 32 33 33 33 34 35 36 37
22 22 23 19 19 17 16 16 14 15 16 18 19 21 22 21 23 22 23 22 22 22 19 19 20 22 22 22 22 24 24 22 25 31 32 32 31 32 33 34 34 35 35
20 18 17 17 16 15 12 11 12 14 16 18 19 21 21 20 21 22 21 20 21 21 21 20 22 22 22 22 22 22 24 27 25 27 30 30 31 32 32 33 33 34 34
19 20 16 16 15 16 14 12 14 15 17 19 21 21 21 22 21 21 21 21 23 22 23 22 22 23 22 24 25 27 26 22 21 25 28 29 30 32 33 32 33 33 32
18 17 16 16 16 14 14 15 19 20 21 21 23 23 21 21 21 20 21 22 23 23 23 23 23 24 25 28 28 24 21 21 19 21 25 28 31 30 31 31 31 31 31
18 17 16 16 15 17 16 22 24 24 23 21 21 21 21 24 26 25 21 23 24 24 24 25 26 25 25 24 23 23 19 20 21 23 25 24 23 23 24 28 28 30 30
18 18 16 15 17 10 22 24 26 25 23 21 21 20 20 24 23 26 27 27 26 23 26 25 26 27 26 24 21 20 20 21 22 25 23 22 22 22 23 24 29 30 31
17 16 15 14 14 19 22 23 25 24 23 22 20 20 19 18 24 22 26 26 26 28 29 26 24 22 20 20 22 22 24 27 25 23 23 22 23 22 23 22 28 30 31
15 14 14 14 15 17 21 22 25 23 21 20 20 19 20 20 22 23 22 25 26 27 27 25 22 21 22 23 25 30 27 24 23 23 23 22 22 21 21 23 28 29 31
15 14 15 14 13 15 21 20 23 22 21 19 20 20 21 21 25 26 25 25 25 25 24 26 26 27 28 28 26 23 23 22 21 20 22 21 21 22 22 22 22 28 28
16 16 13 12 16 13 17 20 22 22 21 21 21 22 26 22 26 27 24 24 22 20 21 23 23 23 22 22 25 22 23 23 22 20 20 21 21 22 19 20 22 22 23

GFSMA_sfc_dewp_051.txt.gz
Dewpoint
57 56 58 58 59 59 58 53 49 47 41 35 32 30 30 30 39 46 52 57 57 55 53 51 49 48 47 47 47 47 47 48 49 49 49 50 50 50 51 52 51 52 53
54 55 57 58 55 53 52 50 48 43 35 31 30 27 26 27 32 44 48 52 53 51 48 46 45 44 44 44 46 46 46 47 48 47 48 49 49 49 50 50 51 51 52
56 58 55 53 52 50 46 41 38 34 33 30 28 27 26 25 27 37 45 45 46 48 42 39 38 38 39 40 43 45 46 46 47 47 47 47 48 49 49 50 50 50 51
59 56 54 53 51 47 43 38 36 33 32 30 28 27 27 29 27 31 40 40 39 37 38 34 33 35 34 38 39 42 43 44 45 45 46 47 48 48 49 49 50 50 50
57 55 52 49 46 41 38 33 31 31 29 28 26 24 30 32 28 29 29 29 32 34 32 32 33 33 32 35 38 41 40 41 43 44 45 46 47 47 48 49 49 49 50
54 52 47 45 41 37 36 33 29 29 28 26 23 27 30 33 30 29 28 28 29 27 27 24 24 25 30 31 34 37 38 41 40 42 44 45 46 47 47 48 48 48 49
53 48 46 41 38 35 32 30 30 28 27 27 27 27 30 30 30 30 31 28 27 26 23 21 21 21 22 28 29 33 36 37 40 41 43 44 45 46 46 47 47 48 48
49 45 42 39 36 33 30 28 29 30 29 27 24 29 25 26 28 29 32 27 24 24 21 19 18 19 20 22 26 31 31 34 38 40 42 44 44 45 46 46 47 47 47
48 45 43 40 33 32 31 31 30 31 29 27 25 27 23 23 22 24 25 26 20 23 20 22 21 20 19 20 26 27 30 32 36 39 41 43 44 45 46 46 46 46 46
48 46 45 39 39 36 31 30 28 28 30 26 26 25 25 22 16 12 21 23 21 19 20 21 21 20 20 22 27 32 31 31 35 39 41 42 44 45 45 45 45 45 46
44 44 40 37 39 40 34 29 24 25 26 28 27 25 22 23 21 20 17 21 21 21 21 22 21 20 21 22 24 27 32 31 35 38 40 42 43 44 44 44 44 44 44
43 38 35 37 37 37 36 31 28 23 24 25 25 24 23 21 21 20 19 19 19 20 21 21 21 21 21 22 24 31 30 32 35 38 40 41 42 42 43 43 43 43 43
37 33 33 35 36 35 33 31 29 29 28 25 22 23 23 22 23 22 21 20 20 21 21 21 20 21 19 20 23 29 30 32 33 36 39 41 40 39 40 40 41 41 41
37 34 33 33 31 32 33 30 31 30 29 27 22 22 23 22 23 23 22 21 20 20 20 19 21 20 20 21 25 30 25 31 32 34 37 38 37 37 37 37 38 39 39
33 30 31 31 33 33 30 29 28 23 23 23 21 21 23 24 24 24 24 24 21 19 18 19 19 19 21 22 25 24 23 29 32 33 34 34 35 35 35 36 36 37 38
27 28 28 27 29 29 24 25 22 19 18 21 22 19 20 23 22 23 23 24 24 22 18 19 19 20 21 22 25 24 23 29 30 32 33 33 33 33 34 34 35 36 38
26 26 24 24 24 21 19 18 18 17 16 18 19 20 21 21 22 22 23 22 22 21 19 20 21 22 22 22 23 23 24 23 25 32 33 32 32 32 33 33 34 35 36
24 22 22 22 19 17 16 17 17 14 16 18 19 20 21 20 21 22 22 21 21 21 21 20 22 22 23 23 23 23 24 25 27 29 31 30 31 31 32 33 34 35 33
23 20 18 16 16 17 14 13 15 16 18 19 21 21 21 22 21 22 21 21 22 21 23 23 22 24 24 25 25 26 27 26 24 27 28 28 30 32 33 33 32 32 32
23 20 17 17 17 16 16 19 21 22 23 22 23 23 22 21 21 20 20 21 22 23 23 23 24 24 25 25 26 25 23 23 21 20 24 27 30 31 31 31 31 31 31
20 19 19 20 21 18 18 22 25 25 24 23 22 21 21 24 26 24 22 23 23 23 24 23 25 24 24 23 24 23 22 21 21 22 23 24 26 23 24 27 27 29 30
18 19 19 19 15 18 27 27 26 25 24 22 22 22 20 24 23 26 26 26 25 23 23 23 25 24 23 23 21 21 21 21 21 24 24 23 23 22 23 23 28 30 31
16 17 17 15 16 22 26 25 26 24 23 22 20 20 19 18 24 22 25 27 27 28 28 26 25 24 23 21 22 22 25 26 25 24 23 22 22 21 22 22 28 29 30
21 17 15 15 17 21 24 24 26 22 22 21 20 20 20 21 22 23 23 25 26 26 26 26 25 23 22 24 26 27 25 23 23 22 22 21 22 21 21 22 28 29 30
16 15 16 14 14 21 22 21 23 22 21 21 21 22 23 23 26 27 25 24 24 25 26 26 27 28 28 28 26 23 22 21 19 19 21 21 20 21 21 21 21 27 27
16 16 13 13 18 12 18 19 20 21 20 21 22 22 27 23 26 28 25 24 22 20 21 23 22 21 21 21 25 22 22 21 21 20 20 21 21 22 19 20 21 21 21

GFSMA_sfc_dewp_054.txt.gz
Dewpoint
62 62 61 60 60 60 59 59 53 47 38 32 30 29 31 32 43 48 53 59 59 56 54 50 48 48 47 46 47 47 47 48 48 48 49 50 50 50 51 51 52 52 52
61 59 58 58 58 58 57 53 48 42 33 31 27 27 27 30 42 47 51 54 56 52 49 46 43 42 42 43 45 46 46 47 48 48 48 48 48 50 50 50 51 51 52
57 57 57 57 55 53 51 44 37 34 32 29 27 26 25 25 32 44 47 46 48 50 43 40 38 38 38 40 42 43 44 46 46 46 47 48 48 48 50 50 50 50 51
56 56 56 54 51 48 43 39 35 32 31 29 26 27 27 29 28 42 43 40 39 39 39 36 34 34 36 38 40 43 42 42 44 45 46 47 47 48 48 49 49 50 50
57 56 55 52 49 44 39 36 33 31 28 27 26 24 29 31 29 33 38 36 36 35 31 34 35 33 32 34 37 39 41 40 42 42 45 46 46 47 48 48 48 49 49
57 56 53 49 43 39 36 32 29 29 27 25 23 27 30 33 29 30 29 28 31 29 28 24 23 25 29 29 31 35 38 39 39 41 42 44 45 46 47 47 47 48 48
55 53 49 43 39 37 34 29 29 25 25 26 26 27 31 30 29 30 30 28 28 26 23 21 21 21 22 28 28 32 34 36 38 39 41 43 45 45 46 47 47 47 48
55 54 46 41 37 34 31 30 30 29 27 26 24 29 27 25 28 28 32 29 26 24 21 19 19 19 20 22 26 31 30 32 36 39 41 42 44 44 45 46 47 47 47
54 52 46 42 38 35 32 30 31 30 27 26 25 27 25 22 22 23 26 24 21 22 21 22 20 20 20 20 26 28 32 31 35 39 41 42 43 44 45 46 46 47 46
53 50 46 43 43 40 32 32 32 34 32 25 26 24 25 23 15 11 20 23 22 19 20 21 21 21 20 23 27 31 34 34 35 39 41 42 43 44 45 45 46 45 46
52 49 45 42 43 41 36 35 35 34 30 29 27 26 23 24 21 18 14 20 22 21 21 21 21 21 21 22 25 30 33 34 37 39 41 43 43 44 45 45 45 45 45
50 48 43 43 43 40 39 38 30 29 27 27 26 24 24 22 22 21 20 20 19 20 21 21 21 20 21 21 23 30 32 34 36 38 40 41 42 42 43 44 43 43 43
45 45 43 42 40 37 32 32 33 33 28 26 23 24 23 23 24 22 21 19 19 21 21 21 20 21 19 21 23 29 30 32 34 36 39 41 40 40 40 41 42 41 41
42 41 39 38 36 32 33 34 34 33 29 26 21 22 24 23 24 23 22 21 19 20 21 19 21 20 20 21 26 30 25 32 32 34 37 38 37 37 37 38 39 39 39
39 39 39 35 33 32 32 33 32 28 26 24 23 23 23 24 25 24 24 24 21 18 18 19 19 20 21 22 25 24 24 29 32 33 34 34 34 35 35 36 36 37 40
37 38 35 31 31 30 29 28 25 22 21 22 23 20 21 23 23 24 24 24 24 22 19 20 19 20 21 22 25 24 24 30 31 32 33 33 34 34 34 35 36 36 36
33 31 27 28 27 25 24 22 22 19 18 19 21 21 21 21 23 22 23 23 22 22 20 20 21 21 22 23 23 24 25 23 25 31 33 33 33 33 33 33 34 34 35
29 28 25 25 24 24 17 18 20 22 23 21 19 20 21 20 21 21 22 21 21 21 21 20 21 23 23 24 24 23 24 25 26 30 32 32 32 31 32 33 33 34 35
24 23 22 20 19 18 16 16 16 18 19 21 23 21 21 21 21 22 21 21 21 21 22 22 22 23 24 24 25 25 26 26 25 28 29 30 30 31 32 33 33 33 32
24 24 23 20 18 18 22 25 26 27 27 24 23 22 21 22 21 20 20 21 21 22 23 23 23 23 24 26 25 23 23 22 22 21 25 27 30 31 32 32 32 31 31
21 22 23 26 29 30 29 29 30 28 25 22 22 21 22 24 27 25 22 23 23 23 23 22 23 22 23 23 22 23 21 21 21 23 23 24 25 26 25 28 28 29 30
27 28 30 30 28 27 32 31 27 24 23 22 21 21 20 23 23 27 27 27 26 24 22 20 20 24 24 23 23 22 21 21 21 24 24 23 23 22 23 23 28 29 31
28 28 24 22 26 29 29 27 29 23 21 21 20 20 20 20 25 22 26 27 27 29 28 26 25 24 24 24 23 23 24 25 23 23 22 21 21 20 22 22 28 29 30
29 29 28 27 27 25 27 26 27 22 21 20 21 21 21 22 23 24 24 25 25 26 25 25 25 25 25 25 27 27 23 23 22 22 21 20 20 20 21 21 27 29 29
24 24 20 17 21 23 24 23 24 21 20 20 21 22 24 24 26 27 25 25 25 25 26 27 27 28 29 28 26 23 22 21 19 18 20 20 20 20 21 21 21 27 27
29 25 20 15 18 12 22 19 21 21 20 20 21 22 26 24 27 28 25 24 22 20 21 23 21 19 21 20 25 22 21 20 20 19 20 20 20 21 19 20 21 21 20

GFSMA_sfc_dewp_057.txt.gz
Dewpoint
62 62 61 61 60 60 59 59 56 46 38 33 31 31 31 41 43 50 54 60 60 57 54 51 49 48 46 46 47 48 48 48 49 49 50 49 50 50 51 51 52 52 52
62 62 60 60 59 59 59 58 51 41 33 29 27 28 29 40 45 50 52 54 57 53 50 47 44 43 42 43 45 45 46 48 48 48 48 49 49 49 50 50 50 51 51
61 61 60 58 58 58 56 51 40 34 32 29 26 25 25 31 43 48 48 48 48 52 45 42 40 39 40 41 42 44 44 45 46 46 47 48 48 48 49 49 50 50 51
59 59 58 57 56 54 49 41 36 33 31 29 26 27 28 28 34 44 44 42 39 39 39 38 36 36 36 37 40 42 43 41 43 44 45 46 47 47 48 48 49 49 49
57 57 57 56 52 47 43 37 34 32 30 27 26 26 29 30 32 41 39 37 37 35 31 35 35 33 32 34 36 38 40 40 41 42 43 44 46 46 47 47 48 48 48
56 56 55 53 49 43 39 35 31 29 28 25 24 27 30 32 30 35 36 31 35 31 28 25 23 25 32 30 31 34 38 39 39 40 42 43 45 46 47 47 47 48 48
57 56 54 51 46 42 38 32 29 26 25 26 27 28 30 30 28 30 30 29 29 27 24 21 22 21 22 32 32 32 35 36 37 39 41 42 44 45 46 46 47 47 48
58 56 53 49 44 39 33 30 30 29 26 26 24 28 26 26 29 28 32 29 27 25 21 20 20 20 21 22 27 35 36 35 36 39 41 42 44 45 46 46 47 47 47
58 56 53 48 42 40 37 37 33 30 27 25 26 28 25 23 24 22 26 24 23 22 22 21 21 20 20 21 26 29 35 36 38 40 42 43 43 44 45 46 47 47 47
57 55 53 48 46 48 43 44 41 38 32 27 27 24 24 24 17 12 20 22 21 19 19 21 21 21 21 24 29 34 34 36 38 41 42 43 44 45 46 46 46 46 46
56 53 51 47 45 46 46 44 44 41 33 32 31 27 23 24 21 17 12 18 22 22 21 21 21 21 21 23 24 29 32 35 38 40 41 42 43 44 45 45 45 45 45
52 51 49 49 48 46 43 44 43 39 33 33 29 27 25 24 21 21 18 19 19 19 21 21 21 21 21 21 23 30 31 33 36 38 40 42 42 43 44 44 44 44 43
49 48 46 47 47 46 43 38 37 33 33 31 26 25 25 24 25 23 20 19 17 20 21 21 21 21 20 21 24 29 30 32 34 37 39 42 41 40 40 41 42 42 42
49 47 46 46 45 40 38 36 36 33 31 29 23 24 25 24 24 22 22 20 18 20 20 18 21 20 20 22 26 29 26 30 32 35 37 38 37 37 37 38 39 39 39
46 45 45 43 39 36 34 33 32 28 26 26 24 24 25 25 26 25 24 23 21 16 18 19 19 20 21 22 25 25 24 29 32 33 34 34 34 35 35 36 36 36 37
43 43 40 36 33 33 31 29 27 25 24 25 24 22 23 24 24 25 25 24 23 21 19 21 19 19 21 21 25 25 25 30 30 32 33 33 33 34 34 35 35 36 35
40 38 36 34 30 28 25 23 22 22 23 25 24 23 24 23 24 23 24 23 23 23 21 20 20 21 21 22 23 24 26 24 25 31 33 33 33 33 33 33 34 34 35
38 34 32 28 26 24 21 20 20 22 24 26 25 22 21 21 22 22 22 22 22 21 21 19 20 22 22 23 24 24 24 24 25 29 33 33 32 32 33 33 33 34 34
30 29 27 26 23 23 21 22 22 21 21 24 26 27 25 22 22 23 22 22 22 21 21 21 21 23 23 24 24 25 25 25 25 28 30 30 31 32 33 33 33 33 33
26 25 23 21 21 21 23 26 28 29 29 28 27 25 23 23 22 21 20 21 21 21 22 22 22 22 23 24 24 24 22 23 22 22 25 28 30 31 31 32 32 32 32
22 23 25 28 31 32 32 33 33 32 30 24 22 21 22 24 26 26 24 23 23 23 23 23 23 22 20 24 23 23 23 23 22 23 23 24 24 25 25 28 28 29 30
30 31 32 33 34 35 37 35 30 24 22 21 20 20 20 22 25 27 28 28 26 24 21 20 17 22 24 24 24 23 23 22 21 24 23 23 23 22 22 23 28 30 31
33 33 32 32 33 34 35 34 29 25 24 22 19 20 20 20 25 23 26 28 28 29 28 26 25 24 23 24 24 23 24 24 24 23 23 21 21 20 21 21 28 29 30
32 32 32 32 33 34 33 32 27 22 20 20 20 21 21 22 24 25 25 25 25 25 26 25 25 25 25 26 28 27 25 23 22 22 22 19 20 19 20 21 27 29 30
32 32 32 30 28 28 27 28 24 21 20 19 20 21 23 23 26 27 25 26 26 25 26 27 27 28 29 28 26 23 21 21 19 19 20 19 19 20 20 20 21 28 28
32 31 28 26 26 19 25 21 22 21 20 20 22 22 25 24 27 28 26 23 21 20 20 22 20 19 20 20 25 22 21 19 20 19 20 18 20 21 18 21 21 22 20

GFSMA_sfc_dewp_060.txt.gz
Dewpoint
61 61 61 61 60 60 59 59 56 46 40 35 33 32 37 41 43 50 54 61 61 57 53 52 51 48 47 48 49 48 48 50 50 50 49 50 50 51 51 51 51 52 52
61 62 61 60 59 59 58 58 53 40 33 29 28 30 33 41 47 50 52 55 58 54 51 48 46 45 44 45 45 46 46 48 48 48 48 49 49 49 49 50 50 51 51
60 62 61 59 59 58 58 54 44 34 32 28 25 25 30 39 46 48 49 48 49 53 47 44 43 41 42 42 44 44 44 43 44 45 47 48 48 48 48 48 49 50 50
60 60 60 60 59 57 56 49 38 34 32 30 27 27 27 29 41 45 45 42 40 39 42 41 39 38 37 38 40 41 41 42 42 43 44 45 46 47 47 47 48 48 49
60 60 60 59 57 54 51 43 35 34 31 28 27 27 30 29 37 43 41 37 38 34 33 40 38 35 33 34 36 37 39 40 40 41 43 43 44 46 46 47 47 48 48
58 59 58 57 55 50 45 38 34 30 30 27 24 27 31 31 32 40 38 35 36 31 30 27 23 25 35 32 33 35 37 38 38 39 40 42 43 45 46 47 47 47 48
58 57 57 56 53 49 45 37 32 28 26 26 28 28 30 31 28 31 33 29 31 28 24 21 22 21 22 32 34 34 37 38 37 38 40 42 43 45 46 47 47 47 48
59 57 56 55 52 47 39 34 31 29 26 28 26 28 25 27 29 29 31 28 28 26 21 20 19 20 21 22 28 34 34 36 38 40 41 42 44 45 45 46 47 47 48
59 58 56 55 51 47 43 40 38 33 31 27 26 30 26 25 26 23 27 27 25 23 22 21 20 20 20 23 29 32 36 36 38 41 43 44 45 45 46 47 47 47 47
59 58 56 55 51 48 46 45 43 44 42 36 33 27 25 27 23 16 21 22 21 20 19 21 20 21 22 24 27 32 33 35 38 41 43 43 44 45 46 46 46 47 46
58 58 56 53 48 48 49 46 45 44 45 40 37 36 32 25 21 18 15 20 22 22 22 21 21 20 20 22 24 29 32 34 37 40 42 43 44 45 45 46 46 46 45
56 55 54 51 49 48 47 47 45 43 39 37 36 33 31 27 23 21 17 19 19 19 21 21 21 21 21 21 23 30 32 34 36 38 41 42 43 44 44 44 44 44 43
53 54 52 49 48 48 47 46 45 43 39 35 31 30 29 25 27 24 21 20 16 19 21 21 21 21 20 21 24 29 31 32 33 36 40 42 41 40 40 41 42 42 42
55 53 52 51 49 48 47 43 42 38 33 31 25 26 26 26 25 24 23 21 18 19 20 19 21 21 20 21 26 29 26 31 32 34 37 38 37 37 37 38 39 39 39
49 49 49 48 46 45 43 41 37 33 28 27 26 26 27 27 28 26 26 24 21 14 16 18 19 20 21 22 24 26 25 30 32 33 33 34 34 35 35 36 36 37 37
47 47 46 44 44 41 37 33 28 25 24 27 27 25 25 26 26 27 27 27 25 21 17 20 20 20 20 20 24 26 25 30 31 33 33 33 34 34 35 35 35 36 36
44 43 42 40 37 33 30 27 24 24 24 25 26 25 27 29 31 29 28 25 25 24 21 21 21 20 20 21 22 24 25 25 25 31 32 33 33 34 34 34 35 35 35
40 38 35 32 29 24 22 21 22 25 25 27 27 27 27 28 28 26 26 25 23 22 22 21 20 21 21 22 23 23 24 24 25 29 32 33 33 33 33 34 33 34 34
35 32 28 25 24 23 22 24 27 27 27 29 30 31 30 29 27 26 24 25 25 21 22 21 21 22 23 23 23 24 24 26 25 29 30 31 31 32 33 33 34 33 33
30 28 25 23 24 25 26 28 30 31 31 31 31 29 28 27 26 24 21 21 22 21 22 22 22 22 23 24 23 24 23 23 23 23 27 28 30 31 32 32 32 32 32
30 27 27 29 30 31 32 34 34 33 32 31 31 31 30 29 27 25 25 25 23 23 23 21 22 22 20 22 24 24 23 23 23 24 24 24 24 24 25 28 28 29 30
30 32 33 35 36 37 38 36 33 31 31 29 27 23 21 23 27 27 26 27 27 25 22 19 18 21 23 24 23 23 23 23 22 24 23 22 23 22 23 23 28 30 31
33 34 35 35 36 37 37 36 33 30 29 26 22 21 20 21 25 24 26 28 28 29 28 27 25 24 23 23 24 23 25 25 24 24 23 21 21 21 21 21 28 29 30
33 33 34 34 34 36 37 34 31 26 21 21 21 21 21 23 24 25 25 26 26 26 26 25 25 25 25 25 26 27 25 23 22 22 22 19 20 19 20 21 27 29 30
33 32 32 33 33 34 35 33 28 21 21 20 21 22 24 23 26 28 26 26 26 24 25 26 27 28 29 28 26 23 21 21 19 18 20 20 19 19 20 20 20 27 28
32 31 31 32 33 29 31 28 25 21 20 21 23 22 25 25 27 28 25 23 20 19 20 22 21 19 20 20 26 22 20 18 20 19 20 20 18 21 17 21 21 22 20

GFSMA_sfc_dewp_063.txt.gz
Dewpoint
64 65 64 62 62 63 62 63 60 52 53 42 40 43 44 43 44 49 55 61 62 58 54 53 51 48 48 49 49 49 50 50 50 49 50 51 51 51 51 51 51 52 52
63 64 64 63 62 62 61 61 57 48 46 38 36 35 39 42 47 53 57 57 59 56 52 50 47 45 45 46 47 46 48 47 47 48 49 49 49 49 50 50 50 50 50
62 62 63 64 62 61 60 59 52 42 37 33 32 32 37 41 47 51 53 52 52 54 50 47 45 44 42 43 44 45 44 43 44 45 46 47 48 47 48 48 48 48 49
62 62 62 63 63 61 60 57 50 41 37 34 32 30 31 39 44 48 49 46 45 43 46 43 42 39 39 39 41 40 41 41 41 43 43 44 45 46 47 47 47 48 48
62 62 62 62 62 61 59 55 46 42 38 35 33 31 32 32 41 45 45 43 42 40 38 41 40 37 35 35 36 38 40 40 39 40 43 43 44 45 46 47 47 48 48
61 61 61 61 61 60 58 52 47 38 38 35 24 28 33 34 37 43 42 38 39 36 37 37 31 33 36 35 34 36 38 39 38 39 40 42 44 45 46 47 48 48 48
60 61 60 60 59 59 56 52 44 38 34 32 32 32 33 34 32 38 40 37 37 34 31 27 25 25 25 32 33 34 38 38 39 39 40 42 44 45 46 47 47 48 48
61 60 60 59 58 57 54 48 42 37 34 32 33 33 31 30 32 32 35 33 33 30 27 25 23 24 26 26 30 33 34 35 38 40 41 43 45 46 46 47 47 48 48
61 60 59 59 57 57 54 49 44 43 36 32 31 35 32 33 30 29 32 32 30 29 26 24 23 23 23 26 30 34 35 36 38 41 42 44 45 46 46 47 47 47 48
62 61 60 59 58 57 54 51 46 46 45 39 33 29 31 32 30 25 25 28 27 26 26 24 22 23 24 26 30 32 33 34 37 40 42 43 44 45 46 47 47 47 47
62 61 60 59 58 55 54 50 48 45 46 43 42 34 30 27 22 25 25 24 25 24 24 22 22 22 23 24 27 29 31 34 36 39 42 43 44 45 46 46 46 46 46
61 60 60 59 58 55 53 51 51 48 46 44 40 37 35 32 26 25 21 23 26 23 23 23 23 22 23 23 23 28 31 32 35 38 41 42 43 44 44 45 45 44 44
58 58 58 57 56 54 53 51 50 49 47 45 39 35 33 30 29 30 29 23 21 20 22 22 23 22 21 22 24 28 29 31 33 36 40 41 41 40 41 42 43 43 43
59 58 57 56 54 52 51 50 50 48 46 44 40 30 30 27 27 27 26 24 20 20 21 21 22 22 22 22 25 28 24 31 32 34 37 38 37 37 37 38 39 40 40
56 56 55 53 52 51 50 49 48 44 40 35 33 31 31 28 28 27 27 25 26 21 19 20 21 22 23 23 24 23 24 28 32 33 34 35 35 35 36 36 37 37 38
52 52 51 49 49 48 47 45 41 34 29 28 28 26 27 27 28 30 31 31 32 30 26 22 21 22 24 21 23 25 24 30 31 32 33 33 34 34 34 35 36 36 37
48 49 47 46 44 42 39 35 30 27 25 25 26 26 28 31 31 30 31 31 30 28 26 24 22 22 21 22 22 24 25 25 25 30 33 33 33 34 34 35 35 36 36
45 44 43 39 36 33 29 26 24 24 24 27 29 29 30 31 32 32 32 31 29 28 24 20 21 21 21 23 23 24 24 24 24 28 32 32 33 33 34 34 34 34 35
39 37 34 30 27 25 23 24 26 27 28 29 31 31 32 33 33 33 31 29 28 25 26 25 22 23 23 24 24 25 25 25 24 28 30 30 31 32 33 33 33 34 33
30 28 26 26 26 28 29 30 30 31 32 32 33 33 32 32 32 31 30 29 28 26 26 24 23 25 24 25 26 25 23 23 22 23 27 28 30 30 31 32 32 32 32
30 31 31 32 32 33 34 34 34 34 34 33 33 33 32 32 33 32 29 29 27 25 25 27 26 26 25 24 23 24 22 22 24 25 24 23 23 24 25 28 28 29 30
36 35 36 36 36 36 38 38 34 33 33 31 29 28 29 30 31 30 28 27 27 26 29 28 28 25 24 24 23 22 24 25 22 24 23 23 24 23 23 23 28 30 31
36 36 36 36 36 37 39 38 35 31 30 29 26 23 23 25 27 24 26 26 27 28 29 28 26 24 23 22 26 27 27 26 23 24 24 22 22 21 22 21 27 29 30
34 33 32 33 36 36 36 34 32 28 23 24 27 26 23 23 24 25 25 28 28 27 26 24 24 24 25 27 27 27 25 24 23 22 22 21 21 20 21 21 27 29 30
32 32 33 34 34 34 34 32 26 23 22 22 23 23 24 23 26 27 27 29 24 22 23 25 27 28 28 27 26 25 25 23 21 19 21 20 21 22 22 22 21 26 27
32 33 32 33 34 33 33 33 24 21 22 22 23 22 25 25 26 27 24 22 20 19 22 25 21 20 21 21 25 22 23 23 22 20 21 22 21 21 21 20 22 21 20

GFSMA_sfc_dewp_066.txt.gz
Dewpoint
59 61 60 58 57 58 58 59 59 57 58 54 50 50 49 47 46 45 45 60 63 58 55 54 51 50 50 50 49 50 50 50 50 50 51 50 51 51 51 51 52 52 52
59 61 62 62 58 58 58 58 58 56 55 51 47 44 45 44 43 46 48 56 60 58 54 52 49 47 48 47 47 47 47 47 47 48 49 49 49 49 49 50 50 50 50
62 62 61 62 62 57 57 58 58 55 51 48 45 40 40 41 43 46 48 51 54 56 53 49 47 45 45 45 44 44 44 42 43 44 45 46 47 48 48 48 49 49 49
61 61 61 61 61 61 58 57 57 53 50 45 42 39 38 41 41 43 46 47 47 45 49 48 46 42 41 41 42 41 40 40 40 42 43 44 45 46 47 48 48 48 49
60 61 60 60 61 61 60 58 56 54 51 46 42 39 37 36 40 40 43 44 45 43 41 46 45 40 38 37 37 37 38 39 38 39 41 42 44 45 46 47 48 48 48
60 61 59 59 60 61 61 60 55 53 52 49 38 36 37 36 35 40 41 40 41 41 39 39 37 34 37 35 35 35 37 39 39 39 40 41 43 45 46 48 48 49 49
61 61 60 59 59 60 61 60 56 52 48 47 40 39 37 36 34 37 40 39 39 38 36 36 31 28 30 35 33 33 36 35 37 39 41 42 43 45 47 48 48 48 49
63 62 61 60 59 59 60 60 57 52 50 44 45 45 42 36 33 33 37 37 36 36 33 32 28 27 28 26 31 32 32 35 38 40 42 44 45 47 48 48 48 48 49
65 63 63 63 62 59 59 60 57 53 49 43 44 47 43 43 36 34 34 36 34 35 32 30 28 26 26 26 31 35 34 34 36 39 41 43 44 45 46 47 47 48 48
64 64 64 63 63 62 60 60 57 54 53 45 40 35 38 38 36 33 31 33 33 31 32 30 26 26 26 28 30 33 32 33 36 39 41 43 44 45 46 47 47 48 47
64 63 63 63 62 61 60 59 57 54 54 51 45 40 37 34 30 35 35 29 30 30 30 29 26 24 25 26 28 30 30 32 35 38 40 43 44 45 46 46 46 47 47
63 63 62 62 62 61 60 59 58 55 53 53 48 44 39 37 32 31 29 29 29 27 27 25 25 26 24 24 24 29 29 31 33 36 39 42 43 43 44 45 45 45 44
62 61 61 61 61 60 60 59 57 56 54 53 50 45 41 35 34 33 34 31 30 24 24 24 26 24 22 25 24 28 26 31 33 35 39 42 41 40 41 42 43 43 43
61 60 60 60 60 59 58 57 57 56 55 54 50 44 34 32 32 30 31 29 25 26 30 29 28 26 24 25 25 28 25 28 31 35 37 38 38 38 38 39 40 40 41
60 60 59 59 58 56 55 54 54 53 52 50 43 37 34 33 33 32 33 32 32 26 24 24 26 24 26 26 27 24 22 28 31 33 35 35 35 36 36 37 37 37 38
56 55 57 56 54 53 52 52 50 50 45 41 37 35 34 31 31 32 34 35 35 32 32 29 30 30 31 28 27 25 23 28 31 32 34 34 34 35 35 35 36 36 37
51 52 52 51 50 49 48 46 41 38 36 35 36 34 32 33 32 31 32 32 33 33 32 33 33 32 28 26 24 24 25 24 24 29 31 32 33 34 34 35 35 36 36
48 48 48 47 45 43 39 34 31 28 28 28 30 30 31 32 33 34 34 33 33 33 32 30 28 28 26 26 28 27 23 22 23 27 31 32 34 34 34 35 34 35 35
41 41 39 36 33 30 30 27 27 29 29 30 32 32 32 33 34 34 33 33 33 33 30 28 26 27 27 25 24 25 24 24 22 27 28 29 31 32 33 34 34 34 34
29 29 28 27 28 28 29 29 31 33 35 35 34 34 34 34 34 33 34 32 30 28 28 27 25 24 25 25 26 24 22 22 21 21 26 28 30 30 31 32 32 32 33
32 32 32 32 33 33 34 35 36 37 36 34 34 34 33 34 35 33 31 29 28 27 27 28 27 25 26 23 22 22 20 21 23 25 24 24 23 24 25 28 28 29 30
36 36 37 37 37 38 39 39 36 34 33 32 30 30 32 32 32 31 30 30 28 27 29 29 29 25 23 22 21 20 23 24 23 25 23 23 24 23 24 24 28 29 31
35 35 36 37 37 38 39 38 36 33 31 31 29 29 29 28 28 24 25 27 27 28 28 27 25 23 21 21 26 29 26 27 25 24 23 23 23 22 23 21 27 29 30
33 33 32 32 32 34 37 36 33 29 27 28 28 27 25 23 23 25 25 27 28 27 26 23 23 22 23 25 26 28 26 24 24 23 24 24 23 21 22 23 28 29 30
33 33 33 33 34 34 33 31 28 28 29 27 24 22 23 22 24 28 27 30 25 22 21 23 26 28 29 28 27 25 26 26 23 22 24 23 23 24 25 24 23 27 27
33 34 33 34 33 32 33 30 25 22 20 20 22 21 24 25 26 26 24 22 21 17 22 26 22 21 21 22 24 24 25 25 24 23 24 24 24 24 23 23 24 24 23

GFSMA_sfc_dewp_069.txt.gz
Dewpoint
57 56 54 55 57 56 56 57 57 57 57 55 52 52 52 51 49 48 49 55 63 60 56 55 53 52 52 51 51 52 51 50 51 51 51 51 51 52 51 51 52 52 52
57 58 59 57 56 56 56 56 57 56 56 55 51 50 50 48 46 46 47 57 61 60 56 54 51 50 50 49 49 49 48 47 47 48 49 49 49 49 50 50 50 50 51
58 58 60 62 61 56 55 56 56 56 54 53 50 47 47 45 45 46 48 55 56 58 57 52 50 48 48 48 47 46 45 43 44 44 45 46 46 47 48 49 49 49 50
59 60 60 60 61 61 56 56 56 56 54 52 50 47 44 44 44 45 47 48 54 51 53 53 49 47 46 44 45 43 42 41 41 41 42 43 44 46 46 48 48 49 49
59 60 60 59 58 61 59 57 56 56 54 52 51 47 44 45 45 43 44 46 48 48 47 52 51 48 43 43 41 40 41 39 38 38 40 42 43 45 46 47 48 48 49
59 60 60 59 59 60 61 59 58 56 55 53 47 44 45 45 45 45 43 42 44 46 45 44 43 40 43 40 38 37 37 39 38 38 40 42 43 44 46 47 48 49 49
61 61 61 60 60 59 61 60 59 56 55 54 50 45 46 43 41 41 43 42 43 44 42 40 40 36 37 40 38 35 37 34 36 38 40 42 44 46 47 48 48 49 49
63 61 61 61 60 60 59 60 59 58 54 53 49 47 46 43 40 38 40 40 40 41 39 38 37 34 35 34 38 35 32 34 38 40 41 42 44 45 46 48 48 48 49
65 64 63 62 62 61 60 60 60 59 54 52 50 51 49 47 41 40 37 39 39 39 38 37 35 33 33 34 37 36 37 34 35 37 40 42 43 45 46 47 48 48 48
65 65 65 63 63 63 61 60 60 60 55 52 48 48 50 45 44 38 39 36 38 36 38 37 32 32 32 34 36 37 36 32 34 38 40 42 44 45 46 47 47 48 48
65 64 64 64 64 64 63 62 61 60 56 54 49 49 45 43 40 41 37 35 36 36 36 35 31 30 29 31 34 35 32 31 33 37 40 42 44 45 46 46 46 47 46
64 63 63 63 63 63 62 62 61 61 58 57 52 51 47 47 42 41 41 37 34 32 33 34 32 29 29 30 30 35 31 30 32 35 39 41 42 43 44 45 45 45 45
62 63 63 63 62 62 62 61 61 59 58 57 56 52 48 48 42 41 40 36 33 27 28 29 28 28 25 28 29 29 30 30 31 36 39 41 40 41 41 42 43 43 43
59 62 62 62 61 61 61 60 60 59 58 57 56 53 50 42 39 36 38 34 30 29 31 32 32 32 31 29 27 29 27 31 31 33 36 38 38 38 38 39 40 41 41
58 59 61 60 60 60 60 59 57 56 56 55 54 47 41 40 40 39 39 40 40 36 34 32 29 30 32 33 33 33 31 33 34 33 35 36 36 37 37 37 38 38 38
52 54 54 57 57 55 55 55 54 53 52 46 44 42 40 40 38 39 38 37 37 36 33 32 32 34 34 33 34 35 33 32 32 32 33 34 34 35 36 36 36 37 37
50 50 50 51 52 52 51 49 45 43 40 39 39 37 36 37 37 36 36 36 36 36 34 33 34 34 34 33 32 30 28 26 26 30 31 32 33 34 35 36 36 36 37
47 47 48 48 47 46 43 41 40 37 37 36 35 35 35 34 35 36 35 34 34 34 33 32 32 32 32 32 30 30 28 24 24 27 31 31 33 33 34 35 35 35 35
37 36 35 36 34 35 31 31 31 31 32 33 33 34 35 35 35 34 34 34 33 33 33 32 30 29 29 29 27 26 26 26 24 28 27 28 31 32 33 34 35 35 35
31 30 30 30 30 30 31 32 33 34 35 35 36 36 37 36 35 34 33 33 32 31 30 29 27 28 27 27 29 26 25 25 23 21 26 29 31 31 31 32 32 32 32
33 33 33 34 34 35 35 36 36 36 35 34 35 35 35 36 36 34 32 31 30 29 28 30 29 28 29 27 24 25 23 23 25 26 26 26 26 26 27 29 28 29 30
37 37 38 38 37 38 39 38 35 33 33 32 31 34 34 34 34 34 33 33 32 29 31 31 31 27 25 24 24 23 26 25 24 27 26 25 26 25 25 26 29 30 31
36 35 35 34 34 37 39 38 36 32 31 31 32 31 29 29 30 27 26 26 26 27 28 28 26 24 23 23 28 28 27 27 25 26 26 24 25 24 25 23 29 30 31
34 34 33 33 33 35 37 36 35 32 32 32 31 30 26 23 23 26 26 28 29 28 28 25 25 23 24 26 27 28 27 26 25 26 26 24 25 24 25 25 29 30 31
33 33 34 33 32 32 33 33 31 31 30 29 29 27 24 22 26 28 28 30 26 24 21 22 24 27 29 30 29 27 26 26 24 24 25 24 25 25 25 24 25 29 29
34 33 35 33 32 31 30 27 24 22 22 21 22 22 25 26 26 27 25 23 22 19 22 27 25 24 24 23 25 25 26 25 25 24 27 25 25 25 25 24 25 26 25

GFSMA_sfc_dewp_075.txt.gz
Dewpoint
56 58 59 61 62 62 61 61 61 61 60 58 56 55 54 52 53 54 58 63 64 63 60 58 57 56 56 55 55 54 53 54 54 53 53 53 52 52 52 52 53 52 53
56 55 57 58 60 60 60 59 59 59 58 57 54 52 51 50 48 51 55 62 63 62 59 58 56 56 55 54 54 52 52 51 52 51 51 51 50 50 51 51 51 51 51
58 57 56 56 58 58 57 58 58 57 57 56 54 51 50 47 46 48 52 59 61 61 61 58 56 55 55 54 54 52 50 49 48 48 48 47 47 48 48 49 49 50 50
58 58 59 58 57 57 56 56 56 56 55 55 53 50 48 47 45 45 55 58 58 56 60 60 57 55 54 54 54 53 49 47 47 45 45 45 45 46 46 46 47 47 48
58 58 59 60 60 60 58 56 56 56 55 53 52 50 46 45 44 45 49 57 55 54 53 58 58 56 55 53 52 51 49 46 45 43 44 43 42 43 44 46 46 47 48
58 58 59 60 61 60 60 57 55 56 55 53 50 49 46 44 45 45 44 50 55 52 50 51 52 51 55 53 51 50 50 46 43 42 42 42 42 43 44 45 47 48 48
58 58 59 60 59 60 60 59 56 55 55 53 49 46 44 44 42 44 44 44 47 50 48 48 46 43 47 53 51 49 48 47 44 42 42 42 43 44 46 46 47 48 48
61 59 59 59 60 59 60 59 58 56 56 53 50 44 42 42 43 41 41 42 43 45 45 44 41 38 40 43 43 48 46 45 42 41 43 44 43 43 45 46 46 47 48
64 63 61 60 60 60 59 60 59 58 56 55 50 47 45 44 42 41 40 40 41 43 43 42 40 37 37 39 44 46 45 41 41 43 43 42 42 43 44 46 47 47 48
63 63 63 62 60 60 59 59 60 60 57 55 54 50 50 48 42 40 42 43 43 41 42 40 39 35 35 37 41 42 42 41 40 39 40 41 41 42 44 45 47 47 47
63 63 63 62 62 61 60 59 59 59 59 57 55 52 52 51 46 43 42 43 43 43 43 40 37 33 33 36 38 41 42 38 36 36 39 40 41 42 43 45 46 47 46
61 62 62 63 62 61 62 62 62 60 60 60 57 55 52 51 50 47 43 42 42 40 38 36 34 32 34 37 40 43 40 36 37 40 43 45 46 45 43 44 45 45 44
57 60 61 61 61 60 62 61 61 60 60 60 58 56 54 52 52 50 47 43 41 39 40 38 38 39 39 41 42 42 43 42 42 43 46 45 44 43 43 44 44 44 44
57 58 58 59 60 61 61 60 60 59 59 59 57 56 54 53 51 50 48 44 38 37 37 36 38 39 40 40 41 42 41 43 42 42 44 44 43 42 41 40 41 42 41
53 53 55 57 57 58 57 57 57 57 57 55 53 52 47 45 46 46 46 46 46 38 36 37 37 38 39 40 39 39 38 39 41 41 41 42 41 38 37 38 38 39 39
49 50 50 50 50 50 52 53 52 51 50 47 46 44 42 42 42 42 43 44 44 42 39 37 36 36 37 38 38 38 37 38 39 39 39 36 35 35 35 36 37 37 37
41 44 46 46 46 45 46 45 44 43 42 41 41 40 39 40 40 40 40 40 40 39 38 34 35 35 35 35 35 36 35 33 32 34 33 33 33 34 35 35 35 36 37
32 33 35 35 33 35 36 39 39 39 39 38 38 38 37 38 38 38 38 37 36 36 37 33 33 33 34 34 33 32 30 28 28 30 31 32 32 31 32 34 34 35 35
31 31 31 31 32 32 33 34 35 36 36 36 36 36 36 36 35 35 35 34 34 35 34 33 32 33 32 32 31 30 29 29 27 29 28 28 30 32 33 34 33 33 33
33 34 34 35 35 36 36 36 36 35 36 36 36 36 36 35 35 34 34 34 33 32 32 31 29 30 29 29 29 26 25 26 23 24 26 28 30 31 32 32 32 31 31
37 37 36 36 36 36 35 34 35 35 34 35 35 36 36 37 37 36 34 33 33 32 31 31 30 29 29 26 25 25 23 25 25 26 26 25 25 27 28 30 30 31 32
36 36 37 36 36 36 38 37 34 33 33 33 32 33 34 34 35 36 37 36 32 31 31 30 28 27 25 24 23 24 24 22 22 26 25 25 26 25 26 26 30 31 32
34 34 35 35 36 37 37 37 35 30 29 30 31 31 31 31 31 31 30 29 28 28 29 28 26 25 23 22 22 21 24 22 22 25 26 24 25 25 25 25 30 31 32
33 33 33 34 35 37 37 35 34 31 30 31 30 28 27 27 27 29 28 27 27 27 27 26 26 24 23 24 26 24 24 25 25 25 26 19 24 23 25 25 29 30 30
32 32 31 29 28 30 32 32 30 26 26 26 27 26 25 24 27 29 25 24 23 21 21 23 22 26 28 29 29 25 21 18 19 23 24 23 23 24 23 24 25 28 29
32 29 26 27 30 26 29 30 28 26 23 24 24 23 25 25 26 25 23 22 20 18 23 24 23 23 23 23 26 24 22 12 15 16 24 23 21 24 21 23 23 24 24

GFSMA_sfc_dewp_081.txt.gz
Dewpoint
58 60 60 61 61 61 61 60 61 61 59 59 59 58 57 56 55 58 60 63 65 65 62 60 59 57 57 57 55 54 54 54 54 54 54 53 53 53 53 53 53 54 53
57 59 60 60 60 60 60 60 60 60 59 58 58 58 57 56 54 57 59 61 64 65 63 61 60 58 57 57 56 54 54 54 54 53 52 52 51 51 51 51 52 52 52
58 58 59 59 60 60 60 60 59 58 58 58 57 57 55 54 51 54 56 59 61 63 64 61 60 59 58 57 56 55 54 53 53 51 51 50 50 50 50 50 50 50 50
57 57 58 58 59 59 60 59 58 58 57 57 57 57 54 51 49 50 52 57 59 60 62 63 62 59 58 58 57 56 54 52 51 50 49 47 47 47 48 48 48 48 48
58 56 56 57 57 58 58 58 57 57 56 56 56 56 54 51 49 46 48 52 57 59 58 60 62 61 60 58 57 57 55 52 50 48 47 46 45 46 46 47 47 48 49
59 57 57 57 56 57 57 56 56 56 56 56 55 54 53 50 48 47 46 49 54 57 57 56 57 58 60 60 57 57 56 54 50 48 46 46 45 45 46 46 48 49 50
60 58 58 58 59 57 56 57 55 55 55 54 52 51 49 48 47 45 46 46 53 55 55 55 54 55 54 60 59 56 56 54 50 46 45 44 45 45 46 48 49 48 49
59 58 58 58 58 59 59 58 57 56 55 54 53 50 50 51 47 46 44 45 45 53 54 54 53 53 51 52 54 58 56 54 52 48 45 43 44 46 46 47 48 48 49
61 60 59 59 59 59 59 59 58 57 57 54 52 55 48 48 46 46 43 43 44 44 48 51 51 50 46 48 51 52 52 50 49 48 45 47 46 45 46 46 47 48 49
63 63 61 59 59 59 59 58 59 59 58 58 54 54 53 50 48 47 44 45 44 43 44 45 47 46 46 48 50 51 52 53 53 52 52 50 49 50 50 52 52 52 50
62 63 63 61 61 59 58 58 58 59 59 59 57 55 54 51 48 48 50 49 46 45 46 46 47 47 47 48 48 50 51 52 52 51 51 50 49 49 51 51 51 52 53
60 61 61 61 61 60 60 59 58 58 59 59 58 57 56 53 52 50 48 49 46 44 41 42 44 44 46 46 48 49 51 50 51 50 50 51 50 51 50 52 53 52 51
56 58 59 59 59 59 59 59 60 59 58 59 59 58 57 56 55 52 52 50 46 43 43 41 41 42 43 45 46 48 49 50 50 50 52 52 51 51 52 52 50 52 51
56 55 57 58 58 58 58 58 59 58 58 57 56 56 56 54 53 53 51 49 43 41 40 41 39 41 42 45 46 48 48 49 48 48 49 50 50 48 47 47 48 46 45
52 53 54 54 54 54 55 56 54 53 51 50 48 48 48 46 46 47 48 48 47 43 41 39 38 40 41 42 45 43 42 45 45 46 45 45 46 45 45 44 43 42 41
48 48 48 48 48 48 48 48 48 49 46 45 45 44 42 43 43 43 44 44 44 43 41 38 37 38 39 40 41 40 40 42 43 44 44 43 43 42 39 39 38 38 38
39 39 39 40 41 44 45 44 44 44 43 42 42 41 40 41 39 40 40 40 40 40 38 35 36 36 37 38 38 39 39 39 38 39 41 40 39 36 36 36 36 36 36
33 33 33 34 35 37 38 40 39 40 40 39 39 39 38 38 38 38 37 37 36 37 37 35 34 34 35 36 36 36 35 33 32 32 33 33 33 34 34 33 35 35 36
34 35 35 35 35 36 36 36 36 36 37 37 37 37 37 36 35 35 35 31 31 35 35 34 33 33 33 33 33 33 31 29 27 30 30 29 30 31 32 33 35 35 35
35 35 35 35 35 35 35 35 35 35 34 34 34 34 33 33 32 31 31 31 31 31 31 30 31 32 31 31 30 27 25 24 23 24 26 28 28 30 32 33 33 33 33
35 35 35 35 35 35 34 35 35 35 34 35 35 36 36 36 36 34 32 31 31 30 31 31 30 30 29 26 24 24 22 23 22 24 25 24 25 26 26 29 30 31 32
36 35 35 35 36 35 38 37 35 33 34 34 33 33 33 31 34 36 35 34 33 29 27 26 28 24 23 23 23 22 21 19 19 24 24 24 25 24 25 26 30 31 32
36 36 36 35 36 35 37 37 35 29 31 31 26 24 28 29 28 27 29 30 31 31 30 26 24 23 22 22 20 18 21 17 20 24 24 23 25 24 25 24 30 31 32
34 35 34 34 35 36 37 36 33 25 25 24 23 23 24 24 27 27 27 26 26 23 25 27 26 25 24 22 23 21 21 23 24 24 25 17 23 23 24 25 28 29 29
33 33 32 29 28 29 31 31 27 24 25 24 25 25 25 25 28 29 24 24 21 20 25 29 28 28 29 29 28 27 24 18 18 22 24 23 22 23 24 24 24 27 29
31 28 27 26 30 26 31 30 26 24 23 23 22 21 27 25 25 25 22 21 19 19 22 25 23 21 24 26 29 24 21 10 12 15 23 21 21 22 17 21 23 23 23

GFSMA_sfc_dewp_087.txt.gz
Dewpoint
62 63 64 65 65 65 64 64 64 63 63 61 59 57 57 56 56 57 59 61 64 66 63 62 60 58 57 57 55 54 54 55 54 55 55 54 54 54 54 54 54 55 54
61 62 62 63 64 64 64 63 62 62 62 61 59 57 58 59 58 58 57 58 62 65 65 63 62 60 59 58 57 55 54 54 54 54 53 53 53 53 53 53 53 53 53
59 59 61 61 61 62 63 63 62 61 61 60 59 57 57 58 58 57 56 57 59 62 65 64 63 61 60 59 58 57 55 54 53 53 52 51 51 51 51 51 51 51 52
61 59 58 59 60 61 61 61 61 60 60 59 58 58 58 58 58 56 54 54 57 59 62 65 65 62 61 60 59 58 57 55 54 52 51 49 49 48 49 49 49 50 50
62 61 59 59 59 60 60 60 60 60 59 58 58 58 58 58 58 56 55 53 54 57 59 61 63 64 64 61 60 59 59 57 55 53 51 49 47 47 46 47 48 49 50
63 62 61 60 59 59 59 59 59 59 58 58 57 56 57 57 57 56 55 53 52 53 55 58 59 60 61 62 61 60 59 59 56 53 51 50 47 47 46 46 48 50 50
64 62 61 60 59 59 58 58 58 57 57 57 56 57 56 56 56 56 55 53 52 51 52 53 55 57 58 61 62 61 60 59 59 55 52 51 50 48 47 46 48 48 48
64 63 62 61 60 58 58 57 57 57 57 57 56 55 54 55 54 53 53 52 52 50 50 51 53 54 57 57 58 61 61 59 59 58 53 53 52 51 50 51 50 50 51
62 62 62 61 61 60 61 59 59 58 58 58 57 58 53 52 52 53 49 48 47 48 48 49 51 53 54 55 56 57 58 59 59 60 57 54 53 53 53 53 53 52 53
62 61 61 61 61 61 60 61 61 60 59 58 57 56 57 55 54 53 52 49 47 46 47 46 46 48 51 53 53 55 56 57 58 58 60 58 55 55 54 54 53 52 53
64 64 62 61 60 61 61 60 60 60 60 60 59 56 56 55 54 52 52 54 51 47 45 45 47 49 48 50 52 53 55 56 57 59 59 57 57 55 54 54 53 54 55
62 63 64 64 63 61 61 60 60 60 60 60 60 59 57 56 53 53 51 52 53 50 45 44 44 45 46 48 49 50 53 54 56 57 58 57 55 53 54 53 54 54 54
56 58 59 62 63 63 63 62 61 61 60 60 60 60 59 58 57 55 54 53 52 48 45 42 43 44 44 45 47 49 50 52 53 55 55 54 53 52 51 51 52 52 52
55 56 57 59 60 61 61 61 61 61 60 59 58 56 55 52 53 54 54 52 49 47 45 43 42 43 44 46 46 47 49 51 51 51 51 49 48 47 48 47 48 47 47
52 53 54 55 55 58 59 59 57 54 53 52 52 51 50 47 48 48 50 51 50 47 46 41 43 42 43 44 46 46 47 49 48 47 46 46 46 45 45 45 43 43 43
46 47 48 49 49 50 51 52 51 50 49 48 48 47 46 45 44 45 46 46 47 48 44 41 40 40 41 42 43 41 42 42 44 44 44 44 43 43 42 41 41 40 40
39 40 42 44 45 46 47 48 48 47 46 45 45 44 42 42 42 41 42 42 42 43 43 37 38 37 38 39 39 39 39 39 38 40 41 41 40 40 39 37 36 36 36
36 37 39 40 40 41 42 44 43 43 43 42 42 41 40 39 39 39 40 38 38 39 41 38 36 36 36 36 36 36 35 33 34 32 34 33 33 34 34 34 34 34 35
36 37 37 38 38 38 38 39 39 39 39 39 39 39 38 38 37 37 37 37 36 36 37 37 34 34 34 34 34 34 31 29 27 28 30 30 31 30 30 32 33 33 35
36 36 36 36 36 37 37 37 37 36 36 35 36 36 35 35 35 35 34 34 34 34 35 35 34 33 32 32 30 28 27 26 25 23 25 28 31 30 30 30 31 33 34
35 35 35 36 36 37 36 36 36 36 36 37 37 37 36 36 36 35 33 33 33 32 32 33 31 30 29 27 26 25 23 23 23 25 24 25 25 25 25 28 29 30 31
36 36 36 37 37 37 39 39 37 36 35 35 33 33 33 33 36 36 35 34 31 30 31 31 30 27 25 24 24 23 23 23 19 25 25 23 25 24 25 26 28 31 32
37 36 36 36 36 37 38 38 37 35 34 33 32 32 31 30 29 30 33 32 32 33 29 26 23 24 23 23 25 27 25 26 23 25 25 23 24 23 25 23 28 31 32
36 37 35 36 38 37 38 37 35 31 28 27 27 28 29 28 27 27 27 27 25 28 27 24 24 24 25 25 25 26 26 27 27 25 26 25 24 23 24 24 28 30 31
34 34 35 35 36 36 35 33 28 26 26 25 25 27 27 26 30 26 25 26 22 21 28 30 29 29 29 29 27 27 28 27 23 22 25 24 25 24 24 23 23 27 29
33 31 31 30 31 30 30 29 25 24 24 24 25 26 28 25 25 28 21 18 19 19 26 24 21 23 26 29 28 25 27 27 26 25 25 26 26 25 26 23 24 25 23

GFSMA_sfc_dewp_090.txt.gz
Dewpoint
59 61 62 62 63 63 62 62 61 61 61 60 57 52 52 53 55 56 57 62 63 66 65 63 61 59 58 58 56 55 55 55 54 56 55 55 55 55 55 54 54 55 56
57 60 61 62 62 62 61 61 59 58 59 59 58 54 53 55 57 57 57 57 62 64 66 64 63 61 60 59 58 56 55 55 54 54 54 54 54 54 53 53 53 54 54
60 60 58 59 60 59 59 60 60 59 57 57 56 55 52 54 57 57 58 57 58 62 64 65 64 63 62 60 59 58 56 56 55 54 53 53 53 52 52 51 51 51 52
62 61 60 57 57 59 59 59 59 58 57 57 56 57 57 56 57 57 57 57 57 57 62 65 65 64 63 62 61 60 59 57 56 55 53 51 50 50 50 49 50 50 50
62 62 61 60 58 59 59 59 59 58 58 58 58 57 58 58 58 57 57 57 57 57 57 62 63 64 64 62 62 61 61 59 57 55 53 51 50 50 49 49 49 49 50
63 63 62 62 61 60 60 60 59 59 58 57 56 56 57 58 58 58 58 57 57 57 56 57 57 58 62 63 62 61 61 61 58 56 54 52 50 50 48 48 48 50 49
64 64 63 62 62 61 60 60 59 59 58 58 57 57 58 58 58 58 58 57 56 56 55 54 55 55 56 62 63 62 61 60 61 58 55 53 51 50 49 47 48 48 48
65 64 64 63 62 62 61 60 59 58 58 58 57 57 56 55 56 56 56 55 54 54 53 53 53 53 54 55 57 61 62 61 61 61 57 55 53 53 51 49 50 49 50
65 65 64 63 64 63 62 62 61 60 59 60 59 58 55 54 55 55 54 52 51 51 50 50 50 52 52 53 57 58 58 59 60 60 60 55 55 54 53 53 52 53 53
63 63 63 63 63 63 62 64 63 62 61 59 60 58 59 58 55 54 55 54 50 49 49 49 49 49 50 52 54 54 55 57 59 60 60 58 58 56 56 55 55 54 53
65 64 63 63 62 62 62 62 62 61 61 61 61 60 59 57 56 55 54 55 54 49 47 47 48 49 50 50 52 53 54 56 57 59 59 59 60 57 57 55 54 54 54
64 65 65 65 64 63 62 62 62 62 61 61 61 61 59 58 57 55 54 54 55 53 48 47 47 47 47 48 49 50 51 54 55 56 58 58 58 58 54 53 54 54 53
59 61 62 63 63 64 63 63 63 63 62 62 61 61 60 59 58 57 56 54 54 53 50 46 46 46 46 47 48 48 50 51 53 54 55 57 55 52 51 51 50 50 50
54 56 56 59 60 61 62 63 64 63 63 63 62 61 58 55 55 56 56 55 51 51 50 48 44 45 46 46 47 48 49 50 52 53 53 51 49 49 48 47 47 46 46
52 54 55 56 57 59 61 62 62 59 59 56 55 54 52 50 51 51 51 53 52 48 47 45 46 44 44 45 45 46 46 48 48 48 48 47 46 46 46 44 43 43 43
49 51 52 53 53 54 55 56 54 52 52 51 51 50 49 48 48 48 49 49 50 50 47 44 42 42 42 42 42 41 41 42 44 45 44 44 44 43 43 42 41 40 40
44 45 46 48 49 50 50 51 50 49 48 48 49 48 46 45 44 44 45 46 46 47 46 40 39 39 40 41 40 41 40 39 38 40 40 40 39 38 38 37 36 36 36
40 41 42 44 44 45 46 48 47 47 47 46 45 44 42 42 42 43 44 43 44 44 44 40 38 38 39 38 38 38 36 34 35 33 34 34 34 35 34 34 34 35 35
39 39 40 41 41 42 43 44 44 44 44 43 43 43 42 41 40 41 41 41 40 39 41 41 37 36 35 36 36 35 33 32 26 27 28 29 30 31 30 32 33 34 34
38 38 39 39 39 40 40 40 41 40 40 40 40 39 39 39 39 39 38 38 38 38 39 38 37 36 36 34 33 31 30 28 26 23 25 26 29 30 31 31 31 32 34
37 38 38 38 39 39 39 40 40 39 39 38 38 37 37 37 37 36 37 37 37 36 36 38 36 34 34 31 30 27 25 24 24 25 24 23 24 25 26 28 29 31 30
37 37 38 38 38 38 40 39 39 39 38 38 37 37 37 38 37 37 36 33 32 33 34 34 34 30 26 25 25 24 24 24 21 26 24 22 25 24 26 26 27 30 32
38 38 38 38 38 39 40 40 38 38 37 36 36 36 33 32 34 34 34 33 33 32 29 27 24 22 23 23 28 29 25 26 22 25 25 24 24 23 26 23 27 31 32
38 38 38 39 39 38 38 38 37 35 33 32 31 30 28 26 26 26 25 28 28 27 25 22 24 23 24 25 25 29 27 26 27 25 26 27 25 24 25 25 26 31 32
36 36 38 38 37 37 37 36 32 30 27 26 26 28 28 28 28 27 27 27 23 27 31 30 30 30 29 29 28 28 29 28 25 23 25 25 27 26 26 25 23 27 29
35 35 35 35 36 35 34 31 26 22 22 23 24 25 26 25 30 24 19 20 20 20 24 23 23 25 27 29 28 27 28 30 29 29 27 27 27 27 29 27 26 26 25

GFSMA_sfc_dewp_093.txt.gz
Dewpoint
57 56 58 61 62 62 63 62 60 59 59 58 56 50 50 51 53 55 56 63 64 65 66 64 62 60 59 58 56 55 55 55 55 56 55 55 55 55 54 54 54 55 55
56 59 60 60 60 60 60 59 58 57 57 58 57 54 51 52 54 56 57 59 62 63 65 65 64 63 61 60 58 56 55 55 55 54 54 54 54 53 53 53 53 54 54
58 58 58 59 59 58 57 58 58 57 55 54 55 54 52 51 55 56 58 58 59 62 64 66 65 64 63 61 61 60 58 57 56 55 54 53 52 52 51 51 51 51 52
61 61 60 57 57 58 58 58 58 57 56 56 55 56 56 54 54 55 57 58 59 57 62 65 66 65 64 63 62 61 60 58 57 56 55 53 52 51 50 49 49 50 51
61 61 61 59 56 58 58 59 58 57 58 58 58 58 58 59 59 57 57 58 59 59 59 63 64 65 65 64 63 62 62 60 59 57 55 53 52 50 50 49 48 49 50
62 62 61 61 60 59 59 60 59 59 58 58 56 56 58 59 60 59 58 58 58 59 59 59 61 60 63 64 64 62 61 62 60 59 57 55 53 51 50 47 48 49 49
63 63 62 62 62 61 60 60 60 59 60 60 59 59 59 59 59 59 60 58 58 58 57 57 57 57 59 63 64 63 62 61 61 61 58 56 54 52 51 50 49 50 48
66 64 64 63 62 62 61 61 61 60 60 61 59 59 57 58 59 58 59 57 57 57 56 55 54 55 56 57 59 62 61 62 62 61 61 57 56 54 53 51 50 50 50
67 66 65 64 64 64 63 63 62 61 60 61 60 59 57 55 57 57 56 56 54 54 52 51 51 52 53 54 57 57 58 58 60 61 60 60 58 55 55 54 53 52 53
66 66 66 65 64 65 64 64 63 62 62 60 62 59 60 59 57 55 57 56 53 51 51 50 51 51 51 54 54 54 55 56 58 60 60 60 61 58 57 56 55 54 54
66 65 65 65 64 64 64 63 64 63 62 61 61 62 60 60 58 57 55 56 56 52 50 50 50 50 51 51 51 52 52 55 57 57 58 59 59 60 60 58 56 53 53
66 66 66 65 64 63 63 63 63 63 62 62 62 62 60 58 57 57 55 55 55 54 50 49 48 48 48 49 49 50 51 53 53 55 56 58 59 59 59 57 56 54 54
63 63 64 64 65 65 64 64 63 63 63 62 61 61 61 60 59 58 56 55 55 54 51 48 47 47 46 48 48 49 50 52 53 54 58 57 55 54 54 54 54 52 50
54 56 57 58 60 62 62 63 64 63 63 62 62 62 60 58 58 57 56 55 52 52 51 49 45 45 45 46 47 49 50 52 51 52 53 52 50 49 50 49 47 46 45
52 53 54 55 56 57 59 61 62 62 62 60 58 57 55 53 53 53 53 54 53 49 49 47 45 44 44 45 45 45 45 48 49 48 48 48 47 47 45 44 44 43 43
50 52 53 53 54 55 56 58 56 54 53 52 52 51 50 49 50 50 50 50 50 51 48 46 42 42 43 42 43 42 42 42 44 45 45 44 44 44 43 42 41 40 39
46 48 48 49 50 51 52 52 52 51 50 50 50 49 48 48 47 47 47 48 48 49 47 40 41 40 41 42 41 42 41 40 39 39 40 39 39 38 38 37 37 37 37
42 43 44 46 46 47 49 50 48 49 48 48 47 46 45 44 44 45 46 46 46 46 46 41 39 39 40 39 39 39 36 35 35 35 37 37 37 36 35 35 35 35 34
40 40 41 42 43 43 45 46 47 47 47 46 45 44 43 44 43 44 44 43 43 42 44 41 38 37 37 37 37 37 34 33 27 27 27 28 29 30 31 32 32 33 34
39 39 39 40 40 41 41 42 43 43 43 42 43 42 42 42 42 42 41 41 40 40 41 40 39 38 38 36 36 34 32 30 29 23 26 27 27 30 31 31 31 31 32
38 38 38 39 40 40 40 41 42 41 41 40 40 39 39 39 39 38 39 39 39 39 39 40 37 36 36 34 32 29 27 26 28 27 26 26 26 28 29 29 30 29 30
38 38 38 39 39 38 39 40 41 40 40 39 39 38 38 38 37 37 36 35 35 37 37 38 37 35 30 28 27 26 27 28 26 28 27 25 27 26 27 28 30 29 31
39 38 39 38 38 39 40 40 40 39 38 37 36 37 35 35 36 34 35 34 33 33 32 31 29 25 25 25 31 29 26 28 25 27 26 26 26 25 27 23 27 29 31
39 39 39 40 40 39 39 39 39 37 37 36 36 34 32 30 29 29 27 30 29 27 27 22 27 25 27 27 29 30 27 26 27 27 27 27 27 26 27 28 28 29 33
37 37 38 38 38 38 38 38 35 33 31 30 29 28 28 26 29 28 29 29 27 29 30 32 32 31 30 30 30 29 30 29 28 24 27 26 28 28 28 27 26 26 29
36 36 36 37 37 36 37 35 32 28 25 25 27 28 26 29 27 25 26 24 23 24 25 27 27 26 30 29 29 28 30 27 28 28 28 27 27 27 25 28 26 27 27

GFSMA_sfc_dewp_099.txt.gz
Dewpoint
64 66 65 65 65 65 65 64 64 62 60 58 57 51 49 50 53 60 61 63 66 67 66 64 62 61 60 59 58 57 56 56 57 56 56 56 56 56 56 56 56 56 56
58 61 65 65 64 64 64 63 62 60 59 59 57 53 50 50 52 55 60 61 64 65 66 66 65 63 62 61 59 58 57 56 57 55 55 55 54 54 54 54 55 55 56
58 58 63 63 63 63 63 61 58 57 56 55 55 55 52 50 52 55 57 59 61 63 64 65 65 65 64 63 62 60 58 57 57 55 55 54 53 52 52 52 53 53 53
58 58 59 60 59 59 57 58 57 57 56 55 54 54 54 51 52 54 56 57 58 58 62 65 66 66 65 64 64 63 61 59 58 57 56 54 53 52 51 51 51 52 53
60 59 60 58 58 58 58 58 58 57 57 56 56 56 57 56 55 55 57 57 57 59 59 61 63 64 65 65 64 63 63 62 60 59 58 57 54 53 51 50 49 50 52
61 61 61 60 57 58 58 59 58 58 57 57 57 56 57 57 58 58 58 57 58 58 58 60 61 61 62 64 64 63 63 62 62 61 60 58 56 54 53 52 51 51 50
61 61 62 61 58 58 58 58 59 58 58 58 57 57 58 58 57 58 59 58 58 58 57 57 59 58 57 62 63 63 63 63 62 62 62 60 59 56 54 53 52 52 50
63 62 62 62 61 59 59 59 59 59 59 59 57 57 55 56 58 58 58 58 55 55 52 51 52 52 55 56 57 58 59 59 60 61 60 61 61 58 56 56 54 54 52
66 65 64 64 63 62 61 61 60 59 58 59 58 57 53 53 54 56 54 53 52 51 50 50 51 51 52 53 53 53 56 57 58 58 59 59 60 61 58 58 56 54 53
65 66 65 65 65 64 64 63 63 62 60 59 60 60 58 57 55 54 55 52 51 50 50 50 50 50 50 49 51 52 54 56 57 57 57 57 58 59 61 60 58 56 54
64 65 65 64 64 64 64 63 63 63 62 61 60 59 58 58 58 56 54 53 51 49 49 48 48 48 48 47 48 50 52 54 55 55 56 56 58 60 60 61 60 58 57
64 64 64 63 63 63 63 63 63 63 63 62 61 60 58 57 56 56 55 54 54 50 47 47 47 46 47 47 49 50 52 52 53 54 56 57 58 59 59 60 60 60 57
59 62 63 63 62 63 63 63 62 62 62 61 61 61 61 59 58 57 56 54 52 48 46 45 44 44 46 46 48 50 53 55 56 56 58 57 58 58 58 58 58 57 55
57 60 60 60 61 62 62 62 62 62 61 61 61 61 60 60 59 58 56 54 52 50 48 44 43 44 45 47 48 48 49 52 53 53 54 54 55 54 53 53 52 51 49
52 53 54 54 55 56 56 57 58 59 59 60 60 59 58 57 57 56 56 55 53 49 49 44 43 44 45 45 45 45 46 49 49 50 50 49 49 48 48 48 47 46 45
50 51 52 53 53 53 53 53 54 54 56 55 55 56 54 52 53 53 52 53 52 52 49 44 42 43 44 43 44 43 44 45 46 47 46 45 45 45 44 44 43 42 42
46 47 47 48 49 49 50 51 51 52 53 52 52 52 51 50 50 48 49 49 49 50 47 40 41 42 42 42 42 42 42 40 40 42 42 41 40 41 41 41 41 41 40
42 43 44 45 45 45 46 49 49 49 51 51 50 49 48 48 47 47 47 46 45 47 45 40 39 39 40 41 40 39 35 36 36 39 40 40 40 39 38 38 37 36 35
41 41 41 41 42 42 42 44 47 49 48 49 48 47 46 46 45 45 45 44 44 43 44 40 38 39 38 38 37 37 35 29 28 32 32 32 32 32 32 33 33 33 35
39 39 40 40 40 41 41 41 43 45 45 45 45 45 45 45 44 43 42 41 39 39 40 39 38 37 37 37 37 33 30 30 26 24 27 26 26 28 29 29 30 30 32
38 39 39 39 39 39 40 40 41 41 41 41 40 40 41 42 43 42 40 38 37 37 36 38 37 36 35 33 32 29 29 26 25 25 24 24 25 25 26 30 30 30 30
38 38 39 39 38 39 40 41 41 38 38 37 36 37 38 40 40 41 40 39 38 36 34 32 34 29 31 30 27 25 25 23 22 26 24 22 25 24 26 27 32 30 30
37 36 36 37 37 38 40 41 42 40 39 37 36 36 36 37 37 36 38 37 38 38 37 35 33 31 26 26 26 25 24 23 22 26 24 24 25 23 26 26 29 29 30
36 36 36 35 36 38 40 41 40 38 37 37 37 36 36 33 32 31 27 27 29 29 26 26 27 26 26 27 27 26 24 24 25 25 25 21 26 25 27 27 30 28 30
37 37 37 34 34 37 41 39 38 36 35 35 34 33 31 30 33 33 28 27 27 29 32 33 31 32 31 31 29 27 25 25 23 24 26 24 24 24 26 27 26 27 28
36 36 35 35 37 37 39 38 35 32 30 28 28 28 32 28 32 32 28 27 26 27 28 27 29 31 30 31 31 27 26 19 21 21 25 21 22 22 18 25 26 26 27

GFSMA_sfc_dewp_102.txt.gz
Dewpoint
65 65 64 64 63 63 63 62 62 61 61 59 56 51 50 53 59 61 62 63 66 67 65 64 62 61 60 59 58 58 57 58 57 57 57 56 56 56 56 56 56 56 56
66 65 64 64 63 64 64 63 63 63 62 59 58 54 50 50 53 60 60 61 64 66 67 66 65 63 62 60 59 58 57 58 56 56 56 55 55 54 55 55 55 55 55
63 64 64 64 64 64 63 63 62 59 58 56 57 57 53 50 51 54 59 59 61 63 65 65 65 65 64 63 62 60 59 58 57 56 55 54 54 53 52 53 53 53 54
59 59 63 63 63 62 62 61 58 57 56 55 54 54 54 52 51 53 56 58 59 60 62 65 66 66 65 65 64 64 62 60 59 58 57 55 54 53 51 51 51 52 54
58 59 60 61 60 59 58 58 57 57 56 56 55 55 56 55 53 53 54 56 57 58 58 61 63 64 66 65 64 64 63 62 61 60 59 57 55 54 53 52 51 51 52
59 59 60 58 58 58 58 58 57 57 57 57 56 57 57 57 58 58 57 57 57 58 58 59 60 61 62 64 64 64 63 62 63 62 61 59 57 55 54 53 52 53 52
60 60 60 60 57 57 58 58 58 58 58 58 57 57 57 58 57 57 59 58 58 58 58 58 59 58 57 62 62 62 62 62 61 62 62 61 60 58 56 54 54 53 52
62 61 61 61 60 57 57 58 58 59 58 59 57 56 54 55 57 58 58 58 57 55 52 52 52 55 55 56 56 57 58 59 59 60 61 62 62 60 58 56 55 55 53
65 64 63 63 62 60 60 60 60 60 59 59 58 56 53 53 54 56 54 54 53 52 50 51 51 52 52 51 52 53 55 57 57 58 58 59 60 61 61 59 58 56 55
65 65 64 65 64 64 63 62 63 62 61 59 60 60 59 58 56 54 55 52 51 50 50 50 50 49 49 48 50 52 53 55 56 57 57 57 58 59 60 61 60 58 57
64 64 65 64 64 64 64 63 63 62 62 61 60 59 59 58 58 56 54 52 49 49 49 48 48 48 47 47 49 50 52 53 55 56 56 56 58 59 59 60 61 59 58
63 64 64 63 63 63 62 62 62 62 62 62 61 61 59 57 57 56 54 54 53 49 47 47 47 46 46 47 50 52 55 54 53 55 57 56 57 59 58 59 60 60 59
59 62 63 62 61 62 62 62 62 62 61 61 61 60 61 59 58 57 56 54 53 48 46 46 45 45 46 46 48 51 53 55 56 57 58 58 58 58 58 60 61 60 58
56 58 60 59 59 58 60 59 60 61 61 61 60 61 60 60 59 57 56 54 52 49 47 44 43 44 45 47 48 49 50 52 53 54 54 54 54 54 55 55 55 54 53
54 55 56 56 56 56 56 57 57 57 57 58 59 59 58 57 57 57 57 56 55 49 49 44 43 44 45 45 46 46 47 49 50 51 50 50 49 49 49 50 49 48 47
51 52 52 52 53 54 53 53 53 53 52 53 55 56 56 55 55 54 55 54 53 53 49 44 43 43 44 44 45 44 45 45 48 48 47 46 46 46 46 45 45 44 44
48 48 49 49 49 49 49 50 51 51 51 52 52 53 54 52 52 51 50 50 51 51 49 40 42 42 43 43 42 42 42 40 41 43 43 43 42 42 43 43 43 43 42
43 43 45 45 45 45 45 47 48 48 49 52 52 50 51 49 49 48 48 48 48 48 46 41 40 40 41 42 41 39 37 36 38 40 41 41 41 41 41 40 39 38 37
41 41 42 42 42 42 42 43 44 47 48 49 50 48 48 47 47 46 46 46 46 45 44 41 39 39 38 39 39 37 33 30 31 35 35 36 35 35 36 36 35 36 36
39 39 40 40 40 40 41 41 42 44 45 46 46 46 46 46 45 45 44 43 42 42 42 40 38 37 37 38 38 34 32 30 25 25 28 27 27 30 30 31 32 31 32
38 39 39 39 38 38 40 40 40 41 40 40 41 41 42 43 45 44 42 41 40 40 39 39 38 37 35 35 35 33 30 26 25 25 24 24 25 25 26 31 30 31 30
38 38 38 38 37 39 40 41 41 38 38 37 37 38 39 42 42 43 42 41 40 36 35 37 36 35 34 33 31 28 26 24 23 27 23 22 25 24 26 26 32 32 31
36 36 36 36 36 37 41 41 42 40 39 38 36 37 37 38 38 39 39 39 40 41 39 36 35 34 31 29 27 26 25 24 23 26 23 24 25 24 26 26 31 29 30
35 35 37 36 35 37 40 41 40 38 38 38 38 37 37 34 34 32 29 29 29 26 29 32 34 31 28 28 28 27 25 25 25 26 25 23 26 25 27 27 31 28 29
34 37 37 36 33 35 40 41 39 37 36 35 36 35 34 33 35 33 28 28 29 30 32 33 32 32 32 32 30 27 26 26 24 24 26 24 24 24 25 26 26 29 30
37 36 35 34 36 34 39 40 36 34 33 32 29 30 36 31 35 33 27 26 28 29 29 30 30 31 31 31 31 26 27 24 23 22 25 22 22 22 18 24 26 26 26

GFSMA_sfc_dewp_105.txt.gz
Dewpoint
63 62 62 62 61 62 61 60 59 58 59 59 57 55 51 55 58 61 61 63 66 67 64 63 62 61 60 59 58 58 58 58 57 57 57 56 56 56 56 56 56 56 56
65 63 63 62 62 62 62 62 62 61 61 61 59 56 50 50 55 60 60 61 64 66 67 65 64 63 62 60 59 58 58 58 57 57 56 55 54 55 55 55 55 56 56
65 64 63 63 63 63 62 62 62 61 59 59 58 58 55 50 51 54 59 59 61 63 65 66 65 65 64 63 62 60 59 59 58 57 56 54 53 53 53 53 53 54 55
64 64 63 63 63 63 62 62 61 59 57 55 54 54 54 54 51 51 55 58 59 60 62 65 66 66 65 65 64 63 62 60 59 58 57 56 54 53 52 52 52 53 54
61 62 63 63 63 62 61 61 59 57 56 56 55 55 55 55 53 52 53 55 57 58 58 60 62 63 65 65 64 64 62 63 61 60 59 58 56 54 53 53 52 53 53
58 59 59 61 61 60 59 58 57 57 57 56 56 56 57 57 57 57 56 56 57 57 58 58 59 60 62 63 63 64 63 62 63 62 61 60 58 56 54 54 53 53 52
58 59 59 58 58 58 58 57 57 57 57 57 57 57 57 58 57 57 58 58 58 58 58 59 59 59 59 61 62 61 61 61 62 62 63 62 61 59 57 55 55 54 53
60 59 60 60 57 57 57 57 58 58 58 58 56 56 54 55 57 56 57 58 56 54 54 53 54 56 56 54 55 57 58 58 59 59 60 62 61 61 60 58 57 56 55
63 63 62 62 61 59 58 59 59 59 58 59 58 57 53 53 54 55 54 55 55 54 53 51 53 53 51 51 51 52 55 57 58 58 58 59 60 60 61 60 59 57 56
65 64 63 63 63 63 62 61 62 61 60 59 60 60 59 58 55 54 55 52 50 50 51 52 51 49 48 49 50 52 53 54 56 57 58 57 58 58 60 60 61 59 58
64 65 64 63 64 64 64 64 63 62 61 60 60 59 59 59 58 56 54 53 51 50 49 49 49 48 47 48 49 51 53 53 55 56 56 57 57 58 58 59 59 61 59
63 64 63 63 63 63 63 63 63 62 62 62 61 60 58 57 57 56 56 54 52 49 48 47 47 47 47 47 51 52 55 57 54 54 57 57 57 58 60 60 59 60 60
60 62 62 62 61 61 61 60 59 58 60 60 60 60 60 59 58 58 56 54 53 49 47 47 46 46 46 47 49 51 53 55 57 57 59 59 58 58 59 60 59 59 61
57 58 59 58 58 58 59 58 57 58 58 59 59 59 59 59 59 58 56 55 52 49 46 47 44 45 46 47 48 50 50 53 54 54 55 54 53 54 54 56 57 57 56
55 56 57 56 56 56 56 57 57 56 57 58 59 59 59 59 59 59 57 55 54 50 48 45 43 44 45 46 47 47 48 50 51 51 51 51 50 49 50 51 50 50 49
52 53 52 52 52 53 52 52 52 52 52 52 52 53 54 55 56 56 56 56 54 54 51 45 44 44 45 45 46 45 46 48 49 48 48 47 47 46 46 46 46 46 46
49 49 50 50 49 49 49 49 49 49 49 49 52 52 52 53 53 53 52 52 52 52 50 41 42 43 43 43 43 43 42 42 43 45 45 44 44 43 44 45 45 44 44
45 45 46 45 45 44 44 44 45 47 47 48 51 51 51 50 50 50 50 50 50 49 47 41 40 41 41 43 42 41 39 36 39 42 43 43 43 43 42 42 41 40 40
42 42 42 42 41 41 41 41 42 44 45 47 47 49 49 48 48 47 47 47 46 46 45 42 39 40 40 42 40 37 34 31 33 40 40 40 39 38 38 38 38 37 38
40 40 40 40 40 39 40 40 40 41 42 43 43 43 44 45 46 46 45 45 44 44 43 41 39 38 38 39 39 35 32 29 27 25 29 29 29 33 33 33 33 33 33
39 39 39 38 38 38 40 39 39 39 39 39 39 39 40 42 44 45 44 43 42 42 42 40 38 37 35 37 36 34 32 27 26 25 24 25 26 25 27 31 31 31 30
37 37 37 37 37 39 41 41 41 38 37 37 36 37 38 40 41 43 43 42 42 40 38 38 37 36 35 35 33 32 28 27 25 26 22 23 25 24 26 26 32 32 31
36 35 35 35 35 36 41 42 42 38 37 39 38 37 38 38 38 39 39 39 40 41 40 37 36 36 34 33 32 30 27 26 24 26 23 22 25 24 27 26 33 31 30
34 34 37 37 34 36 40 40 41 35 35 37 38 38 37 36 35 34 31 31 30 29 31 36 36 36 34 32 32 29 27 25 26 26 25 24 26 24 27 27 33 29 29
34 34 37 37 35 33 38 41 39 34 34 35 36 36 36 35 36 35 31 31 29 31 32 33 33 34 33 33 30 27 27 26 24 24 26 25 25 25 25 27 26 30 31
34 36 36 36 36 34 38 40 39 34 33 34 32 31 36 34 36 35 28 28 29 29 29 31 29 31 32 32 31 26 28 25 24 23 26 24 24 24 21 25 26 25 26

GFSMA_sfc_dewp_108.txt.gz
Dewpoint
61 61 61 60 60 60 59 58 58 57 57 58 57 56 51 54 58 60 60 63 66 66 64 63 62 61 60 60 59 59 58 58 57 57 56 56 56 57 57 57 57 57 57
62 61 61 61 60 61 61 60 59 59 60 60 59 57 51 51 55 58 60 60 64 66 67 65 64 63 62 61 59 58 59 58 57 56 56 55 55 55 55 56 56 56 57
63 62 62 61 61 61 61 61 61 61 60 60 58 58 57 51 50 54 59 59 60 63 65 66 65 65 64 64 63 61 60 59 58 57 56 55 54 54 54 54 54 55 56
65 63 62 62 62 62 62 61 61 59 58 57 56 55 55 54 52 51 54 57 59 59 61 64 65 65 65 65 63 63 62 61 60 59 58 56 55 53 53 53 53 54 55
64 64 63 62 62 62 62 61 60 58 57 56 55 55 55 55 55 51 52 54 56 58 59 60 62 63 64 64 63 63 61 63 62 61 60 58 56 54 54 53 52 54 53
62 63 63 62 62 62 61 60 59 58 57 56 56 56 56 57 57 56 56 55 56 57 57 58 58 60 62 62 62 63 63 61 62 63 61 61 59 57 55 55 54 54 53
59 61 61 61 61 61 61 59 58 57 57 57 57 57 57 57 57 57 57 57 58 58 58 59 59 59 60 60 61 61 61 61 60 61 62 62 61 60 58 56 56 55 54
59 59 59 59 59 59 58 58 58 57 57 58 56 56 54 55 56 55 56 57 55 55 56 58 58 56 55 54 55 56 57 58 58 58 59 60 61 61 61 60 58 57 56
60 60 60 60 58 58 58 58 58 58 58 59 59 57 54 53 55 55 53 55 55 54 54 54 55 54 53 51 52 52 54 56 58 58 58 58 59 59 60 61 60 59 58
62 62 62 62 61 61 61 60 61 61 60 59 60 60 59 58 56 54 54 52 51 52 52 52 52 53 51 50 50 52 53 53 55 57 57 57 57 58 59 59 61 61 59
64 64 63 63 63 63 63 63 62 62 61 61 60 59 59 59 59 57 54 54 52 51 51 51 51 50 49 48 49 53 55 56 54 55 56 57 57 57 58 58 59 61 60
63 64 64 64 64 64 63 63 63 62 62 61 60 60 58 57 57 57 56 55 53 51 50 50 49 49 49 48 51 53 56 57 54 53 56 57 57 57 58 59 60 59 60
62 62 62 61 61 61 61 61 61 60 60 60 60 60 60 59 58 57 56 54 54 50 48 48 48 47 48 48 49 51 54 57 58 58 59 58 57 57 58 60 61 59 59
59 60 60 59 59 59 59 57 57 57 58 58 57 58 57 58 58 57 56 54 52 51 47 48 45 46 46 47 49 51 52 54 54 55 55 55 54 53 54 56 57 57 59
56 58 57 57 56 56 56 56 56 56 57 58 58 58 58 58 58 58 58 57 55 52 49 47 45 45 46 47 48 48 49 51 51 51 51 51 51 50 50 51 53 53 52
53 53 53 53 52 52 51 51 50 50 50 50 51 52 52 52 53 54 55 56 56 55 52 46 45 44 46 46 47 46 47 49 50 49 48 48 48 47 47 47 48 48 48
50 50 50 49 49 48 48 48 48 49 50 50 50 52 52 52 51 51 52 52 52 53 52 42 43 44 44 44 45 44 44 44 45 47 46 45 46 45 45 46 46 46 46
46 46 46 45 44 43 43 43 44 44 45 46 47 49 50 50 48 49 50 49 50 50 49 44 41 42 42 43 43 41 38 38 42 44 44 45 45 45 44 44 43 43 42
43 43 43 42 41 41 40 40 41 41 42 44 44 44 46 46 45 46 47 47 47 47 46 43 39 41 41 42 41 38 36 36 37 44 43 43 42 41 40 40 40 41 41
40 40 40 40 39 39 39 39 39 39 40 40 40 40 40 41 42 45 45 45 45 45 44 42 40 39 39 41 39 35 32 30 28 28 32 31 35 36 37 36 37 37 37
39 39 38 38 38 38 40 39 39 38 37 37 38 38 38 40 43 44 44 43 43 43 43 41 39 38 37 38 38 36 33 28 26 27 26 26 27 26 30 32 33 32 32
38 38 37 37 37 39 42 42 40 37 37 36 36 36 36 39 40 42 43 43 43 41 39 39 38 37 36 37 35 34 30 28 28 27 24 24 25 24 26 29 32 32 31
36 35 35 35 35 35 41 42 42 36 36 35 35 35 37 38 38 38 38 38 39 40 42 39 38 37 36 35 34 32 30 30 28 26 22 22 25 24 27 27 33 33 31
35 36 37 37 34 35 39 40 40 34 34 34 34 35 36 37 36 37 33 33 31 31 32 37 37 38 37 36 35 34 30 26 26 26 25 25 26 24 27 27 34 31 30
34 33 36 37 36 33 38 40 39 35 33 32 35 35 36 35 36 38 32 32 30 30 33 35 35 35 35 36 32 30 28 28 25 24 26 26 26 26 26 27 27 29 29
35 34 36 36 36 34 37 39 40 35 34 33 31 31 33 37 37 37 29 29 29 29 31 31 30 31 32 34 32 27 28 26 24 23 26 26 25 25 24 26 26 26 27

GFSMA_sfc_dewp_111.txt.gz
Dewpoint
64 65 64 64 64 63 62 60 58 58 58 58 58 57 54 58 60 61 62 62 65 65 63 63 62 61 60 60 60 59 58 58 57 57 57 57 57 57 57 58 57 57 57
63 63 63 62 62 61 60 58 57 58 60 61 60 57 53 53 56 60 61 61 64 66 66 65 64 63 62 61 60 59 59 58 57 57 56 56 56 56 56 56 57 57 57
63 62 61 61 60 61 61 61 61 62 62 62 61 60 59 55 52 54 59 60 61 63 65 66 66 65 65 64 62 61 60 60 59 58 57 55 55 55 55 55 55 56 56
62 61 60 61 62 63 63 63 62 62 62 60 60 59 58 57 55 52 54 58 59 59 62 64 65 65 64 64 63 63 63 61 61 60 58 57 55 55 54 54 54 55 56
63 63 62 62 63 63 63 63 62 62 61 60 58 57 56 56 56 54 53 54 57 59 59 61 62 63 64 64 63 62 62 63 63 61 60 59 57 55 55 55 54 55 55
65 65 64 63 63 63 63 62 62 61 60 58 56 56 57 58 58 57 55 54 55 57 58 59 59 60 62 63 62 62 62 61 62 63 62 61 60 58 56 56 55 55 54
64 65 64 64 63 63 62 62 61 60 59 58 58 58 58 58 58 58 58 58 59 59 59 59 59 60 61 62 62 61 61 61 60 60 62 62 63 61 59 57 57 56 56
61 62 62 62 63 62 62 61 60 59 58 59 58 57 56 56 57 55 57 58 58 57 58 60 60 60 58 57 57 57 58 58 58 58 58 59 61 62 62 60 58 58 57
61 61 61 62 61 61 61 61 60 60 59 60 59 59 56 55 57 57 55 55 57 57 56 56 57 56 56 55 54 53 55 57 57 57 57 57 58 59 60 61 61 60 58
61 62 62 62 61 62 61 61 61 61 61 60 61 61 61 60 56 56 55 53 53 53 54 54 53 53 52 52 51 52 53 54 56 57 56 56 57 57 58 59 60 61 60
63 63 63 63 63 63 63 62 61 61 62 61 61 60 61 60 60 57 55 56 54 54 54 52 53 52 51 51 52 53 55 57 56 56 55 56 56 57 57 58 59 59 60
64 64 64 64 64 64 64 64 63 63 63 62 62 61 60 58 57 57 56 56 56 54 52 52 52 51 50 50 52 54 55 57 56 53 55 57 58 58 58 59 59 60 59
63 63 64 64 64 64 64 63 63 62 63 61 60 61 61 60 59 58 57 55 54 55 50 50 51 50 49 50 51 53 54 58 57 58 59 58 57 57 58 58 60 60 60
63 63 63 62 62 62 62 61 60 60 60 60 59 59 59 59 60 59 57 56 54 54 51 51 48 49 48 49 50 52 54 55 56 56 56 55 54 53 54 56 57 59 60
61 61 61 59 59 59 58 58 58 58 58 58 58 58 57 57 57 58 58 58 56 52 52 52 49 47 48 49 50 50 51 53 53 52 52 52 51 51 51 52 54 54 55
58 57 56 55 54 54 54 54 53 52 52 52 53 53 52 53 53 54 55 55 55 53 50 51 49 47 47 47 48 48 49 50 51 50 50 49 49 49 48 49 50 52 53
53 53 53 52 50 49 49 50 50 50 50 50 52 52 50 51 52 53 53 53 54 54 51 46 45 45 45 46 46 46 46 46 48 48 47 47 47 47 48 47 48 49 49
49 49 48 46 45 44 45 45 45 46 47 48 48 50 48 49 50 50 50 51 51 51 50 48 43 43 44 45 45 43 40 41 44 45 46 46 46 47 46 46 46 45 45
45 45 44 43 42 42 41 41 42 43 44 45 45 45 45 46 47 48 48 49 49 48 47 45 41 42 42 43 42 41 38 38 40 45 45 45 45 44 44 42 42 43 43
42 41 41 40 40 40 40 40 40 41 42 42 42 42 42 43 43 45 46 46 46 46 45 44 41 40 41 42 41 37 35 34 31 31 36 37 39 41 41 41 41 40 39
40 39 39 39 40 41 40 40 40 40 40 40 40 39 40 41 42 43 45 45 44 44 44 43 41 40 39 39 39 38 35 32 30 30 30 30 30 31 34 36 35 34 35
39 39 39 39 40 41 43 43 40 39 39 38 39 39 39 39 40 42 43 43 43 43 42 41 40 39 38 39 37 36 32 30 30 29 27 27 27 26 28 32 32 32 32
38 38 37 38 38 41 43 42 40 38 38 38 38 39 38 38 38 38 38 38 37 39 41 42 40 39 38 38 37 35 33 33 33 28 25 25 26 25 27 26 33 33 33
38 38 39 38 38 39 41 41 40 38 36 36 37 37 38 38 37 38 36 35 33 32 34 33 39 39 39 38 37 37 35 29 27 26 26 29 25 24 27 29 35 34 32
37 37 38 39 37 37 39 41 39 37 36 35 35 35 36 36 37 38 34 34 31 31 33 38 37 37 37 38 35 32 31 31 27 26 26 26 26 26 27 27 30 33 31
37 38 38 38 38 37 38 40 40 37 35 34 33 33 33 34 38 38 33 30 29 30 31 31 30 31 33 35 33 31 33 33 30 28 27 29 27 28 28 28 29 30 32

GFSMA_sfc_dewp_117.txt.gz
Dewpoint
60 65 64 64 61 60 59 58 57 57 56 55 55 55 55 56 57 58 61 64 66 65 63 63 62 62 61 61 60 59 59 58 57 57 57 57 57 58 58 58 58 58 58
60 63 64 64 61 60 58 56 55 56 55 55 54 53 52 54 55 57 58 62 65 66 65 64 64 63 62 62 61 60 59 59 58 57 56 56 56 56 56 57 57 57 57
61 62 61 61 60 59 56 55 54 54 55 56 56 54 54 53 53 54 56 58 62 64 66 66 66 65 64 64 63 62 61 61 60 59 58 56 55 56 56 55 56 56 57
61 61 60 59 58 56 55 55 54 56 58 60 60 59 58 59 56 55 55 55 58 58 63 66 66 66 66 65 65 65 64 63 62 61 60 58 56 56 56 55 55 55 56
59 59 58 57 56 56 55 56 56 57 61 60 60 59 59 58 57 56 55 55 57 58 59 63 64 64 65 65 65 65 64 64 64 63 62 61 59 57 56 56 56 55 55
58 58 57 55 55 58 59 60 60 61 60 60 58 56 58 59 59 58 56 55 56 57 58 60 61 60 62 63 64 64 64 62 64 64 64 63 62 60 58 57 57 56 56
56 56 56 57 59 60 60 60 61 61 61 61 60 59 58 58 58 58 59 58 58 59 59 60 61 62 60 63 63 63 62 62 62 61 61 62 63 62 61 60 58 58 57
58 58 60 60 60 61 60 61 62 62 62 62 58 59 57 58 58 58 58 59 59 60 60 60 62 62 63 61 59 57 58 60 60 60 60 60 60 61 62 62 61 59 58
63 63 63 62 63 62 63 63 63 63 61 62 60 59 56 56 58 59 58 57 58 59 58 58 59 58 58 57 56 55 56 57 59 61 60 60 60 59 60 61 61 61 60
64 65 65 64 64 65 64 64 64 64 64 62 61 61 62 60 58 56 57 56 56 56 57 57 56 56 56 55 54 54 55 56 58 59 59 59 59 59 59 58 59 59 61
63 64 64 64 64 65 65 65 64 62 62 62 62 62 61 61 60 58 56 58 58 59 58 56 56 54 53 54 54 54 55 56 57 59 60 59 58 58 58 59 59 59 59
63 63 63 64 64 64 64 63 63 63 62 62 62 62 61 60 59 57 56 57 57 57 58 56 55 55 55 54 53 53 54 55 57 58 59 59 57 58 58 58 58 59 59
63 63 63 64 64 64 63 63 63 63 63 63 62 62 62 61 60 57 56 56 56 57 56 56 56 56 54 53 52 52 53 55 57 58 58 58 58 57 56 56 56 57 58
63 63 63 64 63 63 63 64 63 63 63 63 62 62 61 60 60 59 57 56 54 54 54 53 55 54 54 53 53 52 53 55 56 59 60 59 56 55 54 55 55 56 58
63 64 63 63 63 63 63 63 63 62 62 62 61 60 59 58 58 58 58 58 56 50 49 51 54 52 53 53 52 52 53 54 54 54 54 53 53 52 53 53 54 54 56
62 63 63 63 63 63 63 63 61 60 59 59 59 58 57 55 55 55 56 54 54 53 49 51 54 52 51 50 51 51 51 51 53 53 52 52 51 51 50 51 52 54 54
62 62 62 61 61 60 60 59 58 57 57 55 54 53 52 52 52 53 54 52 51 52 50 51 52 51 50 50 48 49 50 50 51 50 50 49 48 49 49 49 50 52 53
61 60 60 58 58 58 56 55 53 53 52 51 51 51 50 48 50 51 51 51 50 51 50 47 49 48 48 48 48 47 45 44 46 48 48 47 48 48 48 48 47 48 51
58 57 56 55 54 52 52 51 49 48 48 48 49 49 49 48 48 50 50 49 48 47 48 48 47 45 45 45 44 43 41 42 43 46 47 47 48 47 46 46 46 46 46
55 53 51 49 48 46 46 45 45 45 45 45 46 46 46 46 46 47 47 47 45 46 45 45 47 45 43 44 44 41 39 39 38 39 44 45 45 45 44 44 45 44 44
50 48 45 44 43 43 42 43 44 44 44 44 44 43 44 42 42 43 43 45 44 43 43 44 43 43 42 41 41 40 38 36 36 37 36 36 37 38 41 42 41 41 40
44 43 43 42 42 39 44 45 44 43 43 43 42 41 41 40 41 41 43 42 43 42 41 41 42 41 41 40 40 38 35 34 35 35 35 34 32 33 33 37 37 37 37
43 43 43 42 42 42 44 43 43 43 42 42 42 42 41 39 40 40 41 40 40 38 38 39 38 40 41 40 39 36 35 35 35 33 33 32 29 29 31 31 35 35 34
43 43 43 44 44 43 43 42 42 42 41 40 40 40 40 39 39 39 39 39 39 38 36 37 37 36 36 38 39 38 37 34 29 29 31 32 30 29 29 29 34 34 34
43 42 42 42 43 43 43 42 41 40 40 38 37 38 38 38 39 38 39 37 37 36 35 37 36 36 38 40 40 36 33 33 31 29 28 30 29 29 29 29 33 36 35
41 42 41 41 42 41 43 42 41 39 38 37 37 36 37 37 38 39 38 37 35 34 32 33 31 32 32 33 34 32 34 33 33 31 30 31 30 31 30 30 32 34 34

GFSMA_sfc_dewp_120.txt.gz
Dewpoint
65 64 63 62 62 61 61 60 59 58 57 56 55 54 56 56 57 61 63 63 65 65 64 63 63 62 62 61 60 60 59 58 58 57 57 57 58 59 59 59 58 58 58
65 63 63 63 61 60 59 58 57 57 56 55 54 54 53 55 56 58 62 63 64 66 65 64 63 63 62 62 61 60 60 59 58 57 56 56 57 57 57 57 57 57 57
63 62 62 63 62 60 57 56 55 55 55 56 55 53 52 52 53 54 59 61 64 64 66 65 65 65 64 64 63 62 61 61 60 59 58 57 56 57 56 56 57 57 56
62 62 61 63 60 58 56 55 54 54 57 58 59 57 58 58 56 53 54 58 61 62 64 66 67 66 66 66 65 65 64 63 63 62 61 59 57 56 56 55 56 56 56
61 61 61 59 58 57 56 54 54 56 59 60 59 59 58 57 56 56 55 54 56 58 61 63 64 65 65 65 65 65 65 65 64 64 63 62 60 58 57 56 55 56 55
60 59 58 57 56 56 57 58 57 59 60 60 58 57 58 58 58 57 56 55 55 56 56 60 61 61 63 64 63 64 64 62 63 63 63 63 63 61 60 58 58 57 57
58 57 57 55 57 59 59 59 60 60 61 60 59 58 58 58 58 58 59 59 59 59 60 61 63 62 61 63 63 63 63 63 61 61 61 61 61 62 62 61 59 59 58
58 55 56 56 59 60 60 60 61 61 61 61 58 57 55 57 58 57 59 58 58 59 59 59 60 61 61 60 59 59 59 59 61 62 63 61 60 60 60 60 62 61 59
58 58 60 60 60 61 61 61 62 61 60 61 59 58 54 53 57 58 57 57 57 57 57 57 58 58 58 57 57 56 57 58 59 60 60 61 60 59 59 59 59 61 61
60 63 63 62 62 63 63 63 63 62 62 60 61 61 60 59 55 54 56 55 56 56 55 55 55 56 56 55 55 54 55 57 59 60 60 60 59 58 59 58 59 59 59
63 64 64 64 64 64 63 63 62 61 61 61 60 60 59 58 59 56 53 54 55 56 56 55 54 53 53 52 52 53 54 56 58 60 60 61 60 58 58 59 59 59 59
63 63 63 63 64 63 63 62 62 62 61 61 61 60 59 57 57 56 55 54 54 55 55 55 54 53 53 52 53 53 54 55 56 58 60 60 59 58 58 58 58 58 58
62 62 63 63 63 63 62 62 61 61 61 61 61 61 61 60 60 58 56 54 54 56 54 54 54 54 54 52 51 51 53 54 56 58 59 60 59 58 57 57 56 56 56
62 62 62 62 63 63 62 62 61 61 61 61 61 61 61 59 59 58 56 53 51 51 53 52 52 52 52 51 52 52 51 54 55 58 59 58 56 55 55 54 55 55 55
62 62 62 62 61 62 62 61 61 61 61 60 61 60 59 58 57 57 56 56 53 48 47 49 50 50 51 51 51 52 52 54 54 54 55 54 53 53 53 53 53 54 55
62 62 62 62 61 61 61 62 61 61 60 59 59 58 57 54 54 54 54 53 52 51 47 49 49 49 49 49 50 50 51 51 53 53 52 52 51 50 50 51 52 53 54
61 61 62 62 62 62 62 61 60 59 59 56 56 55 53 52 51 51 51 51 51 51 49 48 49 49 48 48 48 49 49 49 50 51 51 50 49 49 50 50 51 52 53
61 61 60 60 60 60 59 58 57 57 55 53 52 51 50 49 49 49 50 48 49 50 49 47 47 48 47 46 47 47 45 44 46 49 49 48 49 49 49 48 48 49 52
60 60 59 58 58 58 58 57 55 53 52 51 50 49 48 47 48 47 47 46 46 47 47 47 46 45 45 44 43 43 42 42 43 45 48 47 49 49 47 46 47 47 47
57 57 57 56 55 54 53 51 50 47 47 46 46 46 45 45 45 46 46 45 44 43 44 44 44 44 43 44 44 42 40 39 39 40 44 47 48 46 45 45 45 45 45
53 52 50 49 48 48 45 45 45 45 44 44 44 44 43 42 43 43 43 42 42 41 42 42 40 39 39 39 41 41 38 37 37 38 39 39 40 41 42 44 42 42 42
49 47 46 46 44 41 46 46 45 44 43 43 41 40 40 40 41 42 44 43 42 40 38 41 39 39 39 40 39 39 36 34 35 37 37 37 36 36 36 39 40 39 38
48 47 47 44 43 43 46 46 45 43 42 41 41 41 40 40 40 40 42 41 40 40 40 37 38 37 39 40 39 36 35 35 35 35 35 35 31 32 33 33 38 36 36
45 46 45 44 43 43 45 45 44 41 41 40 40 40 39 39 40 39 38 38 38 38 36 37 35 35 35 35 36 38 37 35 31 31 34 33 30 30 31 30 36 37 36
41 41 43 44 42 41 43 44 41 40 39 38 38 38 38 38 40 39 38 35 36 36 37 38 36 36 36 38 39 37 34 33 32 31 29 31 30 30 30 30 33 36 36
42 42 41 41 42 41 43 42 41 39 38 37 36 37 39 37 41 39 37 37 35 31 31 31 30 30 32 32 34 32 34 33 33 32 31 31 30 31 30 30 32 33 33

GFSMA_sfc_dewp_123.txt.gz
Dewpoint
65 65 65 65 64 63 63 62 61 61 60 58 56 55 56 58 61 62 63 63 65 65 64 63 63 62 62 61 60 59 59 58 58 57 57 58 59 59 59 59 59 58 58
64 63 63 63 62 62 62 61 60 58 56 55 54 53 53 57 59 61 62 63 64 65 65 64 64 63 62 62 61 60 60 59 58 57 56 56 57 57 57 57 57 57 57
63 62 62 61 61 61 60 59 57 56 55 55 54 53 52 53 54 60 61 62 64 64 66 65 65 65 64 64 63 63 62 61 61 59 58 57 56 57 57 57 56 57 56
63 62 62 61 62 60 57 55 54 54 55 57 58 55 55 55 53 53 60 61 62 63 64 66 67 67 66 66 66 65 65 64 63 62 61 60 59 58 57 56 56 56 55
62 61 61 61 60 57 56 55 54 55 58 59 59 59 58 57 56 56 54 57 60 61 61 63 64 65 66 66 64 63 63 63 64 64 64 63 61 60 58 58 57 57 56
62 60 59 61 57 56 55 54 54 57 60 59 58 57 58 57 57 57 56 56 55 57 59 60 61 61 62 64 63 63 64 63 62 62 62 62 63 63 62 59 58 58 58
61 60 60 58 56 55 56 56 57 59 60 60 58 58 57 58 57 58 59 59 59 60 60 62 62 61 61 62 63 63 64 63 61 61 61 61 60 61 62 62 61 59 59
59 58 57 56 56 57 58 59 60 60 61 60 58 57 55 56 57 58 58 58 58 59 59 59 59 61 60 58 59 59 60 60 61 62 62 62 60 59 59 59 59 61 61
59 57 56 57 58 58 59 59 61 61 60 60 59 57 54 53 56 57 56 56 56 56 56 56 57 57 57 57 57 56 57 58 60 60 61 61 61 60 59 59 59 59 60
58 59 58 59 60 61 61 61 62 62 61 60 60 60 59 57 53 53 55 55 55 55 54 55 54 55 55 54 54 55 55 57 59 60 61 61 60 61 59 60 60 61 60
58 60 59 59 62 62 62 63 62 61 61 60 60 59 58 57 57 54 51 53 54 54 55 54 54 53 52 52 51 53 55 56 58 59 61 62 61 60 59 59 59 59 58
59 62 62 62 63 63 63 62 61 61 61 61 60 60 58 57 56 55 55 54 53 54 55 54 53 52 51 51 53 53 54 55 56 57 59 60 60 59 59 58 57 57 57
60 63 63 63 63 63 62 62 61 61 61 60 60 60 60 59 59 57 56 54 52 53 53 53 52 52 53 50 50 51 52 54 55 57 59 59 59 59 57 56 56 56 56
61 63 63 63 62 62 61 61 61 61 61 60 60 60 60 59 59 58 56 54 50 51 50 50 50 50 51 50 52 51 50 54 55 57 59 59 57 55 54 54 54 54 54
62 62 62 62 61 61 61 61 61 61 61 60 60 59 58 57 58 57 56 56 54 47 46 48 48 50 50 50 50 51 52 53 54 54 54 54 54 53 53 52 52 53 54
62 61 61 61 61 61 61 60 60 60 60 60 59 58 56 56 55 55 53 52 53 51 46 48 48 48 48 49 50 50 51 51 52 53 52 52 51 51 50 50 51 52 53
61 61 61 60 61 61 61 60 60 60 58 57 57 57 55 53 52 52 51 50 49 49 46 45 47 46 46 46 48 49 49 48 49 51 51 50 50 49 49 50 50 52 53
61 61 61 60 60 60 60 60 58 58 57 56 55 55 52 51 49 49 49 48 48 48 46 44 44 45 45 46 44 46 45 45 46 48 50 49 49 49 49 48 49 49 50
60 60 60 60 60 59 59 58 58 57 56 55 54 52 50 48 48 47 47 46 46 47 46 45 43 44 45 44 43 43 42 42 43 43 47 49 49 49 47 47 47 47 48
60 60 59 59 59 59 58 57 56 55 54 52 52 49 48 47 48 47 47 45 45 43 43 42 43 44 42 41 41 41 41 40 41 40 44 46 49 49 46 46 45 44 46
57 57 56 57 57 57 56 54 53 51 49 47 47 45 44 44 45 45 44 43 42 41 41 40 40 40 38 38 40 41 39 38 38 39 40 41 42 43 44 45 43 43 42
49 49 49 48 47 47 48 49 48 47 47 45 43 42 41 42 44 45 45 44 43 41 38 37 36 37 38 39 40 39 37 35 36 37 37 38 37 38 39 41 42 41 39
48 47 46 45 46 47 49 49 48 46 44 42 41 40 40 40 42 42 43 42 42 42 41 38 37 37 37 39 39 36 36 35 36 36 36 35 34 35 36 35 40 39 39
46 47 46 45 45 45 47 46 45 43 42 41 41 41 40 39 40 40 40 38 38 38 38 37 36 35 35 35 35 34 37 36 34 32 35 34 31 32 33 33 38 40 38
43 44 45 45 44 43 45 45 42 41 40 40 40 40 39 39 42 41 38 35 36 36 39 39 38 37 36 37 38 38 34 33 33 33 32 32 31 31 31 31 31 37 38
42 43 44 44 43 42 44 44 41 39 38 37 38 38 41 38 42 41 37 36 33 32 33 31 31 31 32 32 34 34 34 33 33 33 32 31 30 31 30 31 32 33 35

GFSMA_sfc_dewp_126.txt.gz
Dewpoint
65 65 64 64 64 63 62 60 60 60 60 60 59 56 58 60 61 62 62 63 65 65 64 64 63 63 62 61 60 60 59 58 58 57 57 58 58 58 58 58 58 58 58
65 65 64 64 63 63 62 61 60 60 60 57 55 56 57 59 60 62 62 63 64 65 65 64 64 63 63 62 62 61 60 59 58 58 57 56 57 57 57 57 57 57 57
64 64 63 63 63 63 62 60 59 58 56 55 54 53 55 58 60 61 62 62 63 63 65 65 65 65 64 64 63 63 62 62 61 60 59 58 57 57 57 57 56 56 56
63 63 63 62 62 62 60 59 57 56 55 56 54 53 52 53 56 60 60 61 62 63 64 66 67 66 66 66 65 65 65 64 63 62 61 61 59 58 57 57 57 56 55
63 62 62 61 61 61 59 58 55 55 56 58 59 57 57 56 56 55 57 60 61 62 62 63 64 65 66 65 65 64 64 64 64 64 64 63 62 61 60 59 58 57 57
62 61 60 60 61 60 57 55 54 57 58 59 58 58 57 57 57 57 55 55 57 60 60 60 60 61 62 63 63 64 63 64 63 62 62 61 62 62 63 62 60 59 59
62 61 60 60 60 57 56 54 55 58 59 59 58 57 57 58 57 58 58 59 59 60 60 60 61 60 60 63 63 63 63 62 62 63 63 61 61 61 60 61 62 62 60
62 60 59 59 58 56 55 54 58 59 60 59 57 56 55 56 57 58 58 58 57 58 58 57 59 59 58 57 58 59 60 60 60 60 60 61 61 60 60 59 59 60 61
62 60 59 59 57 56 55 56 59 60 59 59 58 56 53 52 56 57 56 56 55 56 55 55 56 56 56 55 56 55 57 59 60 61 60 60 60 60 61 59 60 61 61
62 61 60 58 57 57 57 58 60 61 60 59 59 60 58 57 54 54 55 54 55 54 54 54 54 54 54 53 54 55 56 57 59 60 60 60 61 61 60 60 60 60 59
60 59 58 58 58 59 59 60 61 61 61 60 59 59 57 57 57 54 50 52 53 54 54 54 53 52 52 51 51 53 55 56 57 59 60 60 61 61 59 59 59 58 58
59 58 58 59 60 60 61 61 62 61 60 60 60 59 58 56 56 55 52 53 51 53 53 53 52 51 51 50 53 53 53 54 55 57 59 59 60 60 59 58 57 57 57
59 59 58 60 61 61 62 62 61 61 61 60 60 60 59 58 58 56 54 52 51 52 51 51 51 51 52 50 50 51 52 54 55 56 59 59 59 59 58 56 55 56 56
59 60 60 61 62 62 62 62 61 60 60 60 60 60 60 59 59 57 55 52 49 49 49 49 49 49 50 49 51 51 50 54 55 56 58 58 57 56 55 55 55 54 54
59 62 61 61 62 62 61 61 61 60 60 60 60 60 59 58 59 58 57 54 51 46 47 47 47 48 48 49 50 50 52 53 54 55 54 54 54 53 53 52 52 52 53
60 62 62 62 62 61 61 60 59 59 59 60 60 59 57 57 57 57 56 54 53 50 45 47 46 47 47 49 49 49 50 50 51 53 53 52 52 51 50 50 51 51 53
61 61 61 61 61 61 60 60 59 59 59 59 58 58 56 55 54 53 52 50 50 49 46 45 45 46 45 45 45 46 46 46 48 50 51 51 50 50 50 49 49 50 51
61 61 61 61 61 60 60 59 59 59 58 58 57 56 54 53 52 51 51 49 48 48 46 44 43 43 43 43 42 43 45 44 44 46 49 50 50 50 49 48 48 48 49
60 60 60 60 60 60 60 59 59 59 58 57 56 55 53 51 50 49 48 47 47 47 45 43 41 42 42 41 40 41 41 43 43 44 45 47 49 49 48 47 47 47 47
60 59 60 60 60 60 60 59 58 58 57 56 55 54 51 50 49 49 47 46 45 45 43 43 42 41 41 40 40 40 39 41 40 41 42 45 47 49 48 46 46 44 46
58 58 58 58 58 58 58 57 57 56 54 53 52 50 49 48 48 48 47 45 44 43 42 41 40 39 38 37 37 40 39 39 37 36 37 40 42 43 44 46 43 43 43
53 54 55 55 56 54 54 53 55 54 52 50 47 45 45 45 47 48 47 46 44 42 39 37 34 37 37 37 38 39 37 35 35 35 35 36 38 39 41 42 43 43 42
49 48 47 48 48 48 50 51 51 50 49 48 46 44 42 42 44 44 45 45 44 44 41 39 37 37 36 37 37 35 36 35 36 36 35 34 34 37 39 37 42 42 40
46 46 46 46 46 47 48 48 47 46 45 44 44 43 41 41 41 42 41 39 38 39 39 38 37 36 36 35 35 35 34 36 36 35 35 34 31 33 34 35 39 41 40
43 44 45 44 44 44 46 45 44 43 42 41 41 40 40 39 42 42 39 36 36 37 40 39 38 38 39 38 38 37 34 33 33 34 33 33 32 31 32 32 32 38 40
42 43 43 44 44 43 45 45 43 42 40 40 40 40 41 39 43 42 37 36 34 34 35 33 32 33 34 34 36 35 35 33 33 33 33 33 31 31 32 31 32 32 35

GFSMA_sfc_dewp_129.txt.gz
Dewpoint
66 65 64 63 62 61 60 59 57 57 57 57 57 58 59 59 60 62 62 63 65 66 64 63 63 62 62 61 60 59 59 58 57 57 57 58 58 58 58 58 59 58 59
65 64 63 63 62 61 60 59 57 58 59 59 59 56 58 60 60 61 62 62 64 65 65 64 64 63 63 62 62 61 60 59 59 58 57 56 57 57 57 58 58 58 58
64 63 63 62 62 61 60 59 59 59 58 55 55 56 58 59 60 60 61 61 63 63 65 65 65 64 64 64 64 63 63 62 61 60 59 58 57 57 57 57 57 57 56
65 64 63 61 62 61 60 59 59 58 56 55 54 53 56 58 59 59 60 61 62 63 63 65 66 66 66 66 65 65 65 65 64 63 62 61 61 60 59 58 57 57 56
64 64 62 61 61 61 60 59 57 56 55 56 55 55 55 53 55 58 59 60 60 61 62 62 63 64 65 65 65 64 64 63 64 63 64 63 63 63 62 61 59 59 58
64 63 62 61 61 61 59 58 55 56 56 58 57 57 57 56 56 56 55 57 59 60 60 60 59 60 62 63 63 64 64 64 63 62 62 62 61 61 61 62 62 61 60
63 63 62 61 60 60 58 57 55 56 58 59 57 57 57 58 57 57 58 58 58 58 60 60 60 59 60 63 63 63 63 63 63 63 61 61 62 61 60 60 60 60 61
64 63 61 60 60 59 58 56 56 58 59 59 57 56 54 56 57 57 57 58 57 58 57 57 58 58 57 57 57 59 60 61 61 61 61 61 61 61 61 60 59 60 60
64 63 62 60 59 59 57 55 56 58 58 59 58 56 53 52 55 56 56 56 56 56 55 55 55 56 55 55 55 55 57 59 60 60 61 61 61 61 60 60 59 60 60
65 63 61 60 59 59 57 56 56 58 59 59 58 59 57 56 53 53 55 54 55 54 53 54 53 54 53 53 54 55 56 57 58 59 59 60 61 61 60 59 59 59 58
64 64 63 61 59 59 57 57 58 60 59 59 58 58 57 57 56 53 51 53 54 53 53 53 52 52 51 51 51 53 54 56 57 58 59 60 61 61 59 59 58 57 57
63 63 63 62 60 59 58 58 59 60 60 60 59 59 58 56 55 54 52 51 52 52 52 52 51 50 50 50 52 53 54 54 55 57 58 59 59 60 60 58 57 56 56
62 62 62 62 60 59 59 59 60 60 60 60 60 59 59 57 57 56 54 52 51 51 50 51 50 50 51 49 50 51 52 54 53 56 58 59 59 60 58 57 56 56 56
61 61 61 61 60 59 60 60 61 61 61 60 60 59 59 58 58 57 55 52 50 49 48 48 51 49 49 49 50 51 50 53 52 54 54 57 56 55 55 55 54 53 53
60 61 61 60 60 60 60 61 60 60 61 60 60 60 59 59 58 58 56 54 51 47 47 47 47 47 48 48 49 48 49 52 53 54 54 54 53 53 53 52 52 52 53
61 60 60 60 60 60 61 61 61 60 60 60 60 59 58 57 57 57 56 55 53 50 46 47 47 46 47 48 48 47 48 50 51 52 53 52 52 51 51 51 51 51 52
61 61 60 60 60 60 61 60 60 59 60 59 59 59 57 57 56 56 55 53 52 50 46 44 45 45 45 45 45 45 45 44 45 49 51 51 51 51 50 50 49 49 50
61 61 60 60 60 60 60 60 60 59 59 59 59 58 57 55 54 54 53 52 51 50 47 44 44 43 43 42 41 41 44 44 43 45 47 49 50 50 50 48 48 48 49
60 60 60 60 60 60 60 60 59 59 59 59 58 58 56 54 54 52 52 51 49 48 47 43 42 41 41 40 39 40 40 40 42 44 44 46 48 50 50 48 47 46 47
60 60 60 59 60 59 60 59 59 58 58 58 57 57 56 54 53 51 50 49 48 47 46 44 41 40 40 40 39 39 39 39 38 40 41 43 45 47 50 47 46 44 46
58 58 58 58 58 58 58 58 58 58 58 57 56 56 55 53 51 51 50 48 47 46 44 43 41 40 39 38 37 38 36 36 36 35 36 38 40 43 45 46 44 44 43
53 56 56 56 56 55 53 53 56 57 56 56 55 54 53 48 49 50 50 49 48 46 44 41 38 38 37 37 37 37 35 35 33 34 34 35 37 40 42 43 44 43 42
48 47 48 48 48 49 50 51 52 53 54 54 53 50 47 47 48 49 49 48 47 47 43 41 39 38 37 38 37 35 34 34 35 36 36 33 33 34 38 40 43 44 43
46 46 46 46 45 46 47 48 47 46 46 45 45 46 46 45 45 45 44 42 42 42 41 40 39 38 38 38 37 36 36 35 36 35 36 34 32 33 34 36 40 42 42
44 44 45 45 44 45 45 45 45 44 43 43 43 43 43 43 45 44 41 38 38 38 40 40 39 39 39 39 38 36 34 34 33 34 34 34 32 32 32 31 33 38 41
42 43 42 43 44 44 45 45 44 43 42 41 42 42 43 42 44 44 39 38 36 37 37 36 36 37 37 38 39 36 35 33 33 33 33 34 31 31 33 31 31 32 35